Wetterdaten: Samstag, 02.05.2020
Datum Zeit Temp. Aussen Temp. o. S. Temp +5cm Feuchte Auss Luftdruck Regen Sonnenschein Regendauer Solar Windben Empfang
02.05.2020 00:00 9,1 C 7,8 C 7,8 C 96 % 1003,6 hPa 0,0 l/m 0 min 0 min 0 W/m 9,7 km/h (2 Bft) 100,00 %
02.05.2020 00:02 9,1 C 7,8 C 7,8 C 96 % 1003,7 hPa 0,0 l/m 0 min 0 min 0 W/m 6,4 km/h (2 Bft) 100,00 %
02.05.2020 00:04 9,1 C 7,8 C 7,8 C 96 % 1003,7 hPa 0,0 l/m 0 min 0 min 0 W/m 16,1 km/h (3 Bft) 98,11 %
02.05.2020 00:08 9,0 C 7,8 C 7,8 C 96 % 1003,6 hPa 0,0 l/m 0 min 0 min 0 W/m 19,3 km/h (3 Bft) 98,94 %
02.05.2020 00:10 9,0 C 7,8 C 7,8 C 96 % 1003,7 hPa 0,0 l/m 0 min 0 min 0 W/m 3,2 km/h (1 Bft) 97,87 %
02.05.2020 00:12 9,0 C 7,8 C 7,2 C 96 % 1003,8 hPa 0,0 l/m 0 min 0 min 0 W/m 12,9 km/h (3 Bft) 97,87 %
02.05.2020 00:14 9,0 C 7,8 C 7,2 C 96 % 1003,7 hPa 0,0 l/m 0 min 0 min 0 W/m 6,4 km/h (2 Bft) 100,00 %
02.05.2020 00:16 9,0 C 7,8 C 7,8 C 96 % 1003,8 hPa 0,0 l/m 0 min 0 min 0 W/m 3,2 km/h (1 Bft) 97,87 %
02.05.2020 00:18 9,0 C 7,8 C 7,2 C 96 % 1003,7 hPa 0,0 l/m 0 min 0 min 0 W/m 6,4 km/h (2 Bft) 97,87 %
02.05.2020 00:20 9,0 C 7,8 C 7,2 C 97 % 1003,8 hPa 0,0 l/m 0 min 0 min 0 W/m 12,9 km/h (3 Bft) 97,87 %
02.05.2020 00:22 8,9 C 7,8 C 7,8 C 97 % 1003,8 hPa 0,0 l/m 0 min 0 min 0 W/m 6,4 km/h (2 Bft) 97,87 %
02.05.2020 00:24 8,9 C 7,8 C 7,8 C 97 % 1003,8 hPa 0,0 l/m 0 min 0 min 0 W/m 12,9 km/h (3 Bft) 97,87 %
02.05.2020 00:26 8,9 C 7,8 C 7,2 C 97 % 1003,8 hPa 0,0 l/m 0 min 0 min 0 W/m 16,1 km/h (3 Bft) 97,83 %
02.05.2020 00:28 8,9 C 7,8 C 7,2 C 97 % 1003,8 hPa 0,0 l/m 0 min 0 min 0 W/m 19,3 km/h (3 Bft) 97,87 %
02.05.2020 00:30 8,9 C 7,8 C 7,2 C 97 % 1003,8 hPa 0,0 l/m 0 min 0 min 0 W/m 12,9 km/h (3 Bft) 95,74 %
02.05.2020 00:32 8,9 C 7,8 C 7,2 C 97 % 1003,8 hPa 0,0 l/m 0 min 0 min 0 W/m 16,1 km/h (3 Bft) 97,37 %
02.05.2020 00:34 8,9 C 7,8 C 7,2 C 97 % 1003,9 hPa 0,0 l/m 0 min 0 min 0 W/m 12,9 km/h (3 Bft) 95,92 %
02.05.2020 00:36 8,9 C 7,8 C 7,2 C 97 % 1003,9 hPa 0,0 l/m 0 min 0 min 0 W/m 16,1 km/h (3 Bft) 93,62 %
02.05.2020 00:38 8,9 C 7,8 C 7,2 C 97 % 1003,9 hPa 0,0 l/m 0 min 0 min 0 W/m 6,4 km/h (2 Bft) 96,23 %
02.05.2020 00:40 8,9 C 7,8 C 7,2 C 97 % 1004,0 hPa 0,0 l/m 0 min 0 min 0 W/m 6,4 km/h (2 Bft) 94,74 %
02.05.2020 00:42 8,8 C 7,8 C 7,2 C 97 % 1003,9 hPa 0,0 l/m 0 min 0 min 0 W/m 16,1 km/h (3 Bft) 95,74 %
02.05.2020 00:44 8,8 C 7,8 C 7,2 C 97 % 1003,9 hPa 0,0 l/m 0 min 0 min 0 W/m 6,4 km/h (2 Bft) 92,00 %
02.05.2020 00:46 8,8 C 7,8 C 7,2 C 97 % 1004,0 hPa 0,0 l/m 0 min 0 min 0 W/m 16,1 km/h (3 Bft) 91,30 %
02.05.2020 00:48 8,8 C 7,8 C 7,2 C 97 % 1004,0 hPa 0,0 l/m 0 min 0 min 0 W/m 25,7 km/h (4 Bft) 91,49 %
02.05.2020 00:50 8,8 C 7,8 C 7,2 C 97 % 1004,0 hPa 0,0 l/m 0 min 0 min 0 W/m 16,1 km/h (3 Bft) 93,62 %
02.05.2020 00:52 8,8 C 7,8 C 7,2 C 97 % 1004,0 hPa 0,0 l/m 0 min 0 min 0 W/m 12,9 km/h (3 Bft) 95,74 %
02.05.2020 00:54 8,8 C 7,8 C 7,2 C 97 % 1003,9 hPa 0,0 l/m 0 min 0 min 0 W/m 16,1 km/h (3 Bft) 93,62 %
02.05.2020 00:56 8,8 C 7,8 C 7,2 C 96 % 1004,0 hPa 0,0 l/m 0 min 0 min 0 W/m 12,9 km/h (3 Bft) 95,74 %
02.05.2020 00:58 8,8 C 7,8 C 7,2 C 96 % 1003,9 hPa 0,0 l/m 0 min 0 min 0 W/m 12,9 km/h (3 Bft) 95,65 %
02.05.2020 01:00 8,8 C 7,8 C 7,2 C 96 % 1004,0 hPa 0,0 l/m 0 min 0 min 0 W/m 9,7 km/h (2 Bft) 93,62 %
02.05.2020 01:02 8,8 C 7,8 C 7,2 C 96 % 1004,1 hPa 0,0 l/m 0 min 0 min 0 W/m 19,3 km/h (3 Bft) 97,87 %
02.05.2020 01:04 8,8 C 7,8 C 7,2 C 96 % 1004,0 hPa 0,0 l/m 0 min 0 min 0 W/m 6,4 km/h (2 Bft) 95,65 %
02.05.2020 01:06 8,8 C 7,8 C 7,2 C 96 % 1004,0 hPa 0,0 l/m 0 min 0 min 0 W/m 3,2 km/h (1 Bft) 93,62 %
02.05.2020 01:08 8,8 C 7,8 C 7,2 C 96 % 1004,1 hPa 0,0 l/m 0 min 0 min 0 W/m 9,7 km/h (2 Bft) 95,74 %
02.05.2020 01:10 8,8 C 7,8 C 7,2 C 96 % 1004,2 hPa 0,0 l/m 0 min 0 min 0 W/m 12,9 km/h (3 Bft) 93,48 %
02.05.2020 01:12 8,8 C 7,8 C 7,2 C 96 % 1004,1 hPa 0,0 l/m 0 min 0 min 0 W/m 3,2 km/h (1 Bft) 95,74 %
02.05.2020 01:14 8,7 C 7,8 C 7,2 C 96 % 1004,2 hPa 0,0 l/m 0 min 0 min 0 W/m 6,4 km/h (2 Bft) 95,74 %
02.05.2020 01:16 8,7 C 7,8 C 7,2 C 96 % 1004,2 hPa 0,0 l/m 0 min 0 min 0 W/m 6,4 km/h (2 Bft) 95,74 %
02.05.2020 01:18 8,7 C 7,8 C 7,2 C 96 % 1004,2 hPa 0,0 l/m 0 min 0 min 0 W/m 6,4 km/h (2 Bft) 93,62 %
02.05.2020 01:20 8,7 C 7,8 C 7,2 C 96 % 1004,1 hPa 0,0 l/m 0 min 0 min 0 W/m 3,2 km/h (1 Bft) 95,65 %
02.05.2020 01:22 8,7 C 7,8 C 7,2 C 96 % 1004,2 hPa 0,0 l/m 0 min 0 min 0 W/m 6,4 km/h (2 Bft) 95,74 %
02.05.2020 01:24 8,7 C 7,8 C 7,2 C 96 % 1004,2 hPa 0,0 l/m 0 min 0 min 0 W/m 9,7 km/h (2 Bft) 95,74 %
02.05.2020 01:26 8,7 C 7,8 C 7,2 C 96 % 1004,2 hPa 0,0 l/m 0 min 0 min 0 W/m 6,4 km/h (2 Bft) 97,87 %
02.05.2020 01:28 8,7 C 7,8 C 7,2 C 96 % 1004,3 hPa 0,0 l/m 0 min 0 min 0 W/m 9,7 km/h (2 Bft) 97,87 %
02.05.2020 01:30 8,7 C 7,8 C 7,2 C 96 % 1004,3 hPa 0,0 l/m 0 min 0 min 0 W/m 12,9 km/h (3 Bft) 95,74 %
02.05.2020 01:32 8,7 C 7,8 C 7,2 C 96 % 1004,4 hPa 0,0 l/m 0 min 0 min 0 W/m 12,9 km/h (3 Bft) 95,65 %
02.05.2020 01:34 8,7 C 7,8 C 7,2 C 96 % 1004,3 hPa 0,0 l/m 0 min 0 min 0 W/m 16,1 km/h (3 Bft) 56,52 %
02.05.2020 01:36 8,7 C 7,8 C 7,2 C 96 % 1004,3 hPa 0,0 l/m 0 min 0 min 0 W/m 3,2 km/h (1 Bft) 95,74 %
02.05.2020 01:38 8,7 C 7,8 C 7,2 C 96 % 1004,3 hPa 0,0 l/m 0 min 0 min 0 W/m 3,2 km/h (1 Bft) 98,15 %
02.05.2020 01:40 8,7 C 7,8 C 7,2 C 96 % 1004,3 hPa 0,0 l/m 0 min 0 min 0 W/m 19,3 km/h (3 Bft) 97,87 %
02.05.2020 01:42 8,7 C 7,8 C 7,2 C 96 % 1004,3 hPa 0,0 l/m 0 min 0 min 0 W/m 6,4 km/h (2 Bft) 100,00 %
02.05.2020 01:44 8,7 C 7,8 C 7,2 C 96 % 1004,3 hPa 0,0 l/m 0 min 0 min 0 W/m 6,4 km/h (2 Bft) 97,37 %
02.05.2020 01:46 8,7 C 7,8 C 7,2 C 96 % 1004,3 hPa 0,0 l/m 0 min 0 min 0 W/m 6,4 km/h (2 Bft) 97,87 %
02.05.2020 01:48 8,7 C 8,3 C 7,2 C 96 % 1004,4 hPa 0,0 l/m 0 min 0 min 0 W/m 6,4 km/h (2 Bft) 100,00 %
02.05.2020 01:50 8,7 C 7,8 C 7,2 C 96 % 1004,3 hPa 0,0 l/m 0 min 0 min 0 W/m 6,4 km/h (2 Bft) 100,00 %
02.05.2020 01:52 8,7 C 8,3 C 7,2 C 96 % 1004,4 hPa 0,0 l/m 0 min 0 min 0 W/m 16,1 km/h (3 Bft) 100,00 %
02.05.2020 01:54 8,7 C 8,3 C 7,2 C 96 % 1004,4 hPa 0,0 l/m 0 min 0 min 0 W/m 6,4 km/h (2 Bft) 97,87 %
02.05.2020 01:56 8,7 C 8,3 C 7,2 C 96 % 1004,4 hPa 0,0 l/m 0 min 0 min 0 W/m 6,4 km/h (2 Bft) 100,00 %
02.05.2020 01:58 8,7 C 8,3 C 7,2 C 96 % 1004,4 hPa 0,0 l/m 0 min 0 min 0 W/m 16,1 km/h (3 Bft) 100,00 %
02.05.2020 02:00 8,7 C 8,3 C 7,2 C 96 % 1004,4 hPa 0,0 l/m 0 min 0 min 0 W/m 3,2 km/h (1 Bft) 97,83 %
02.05.2020 02:02 8,7 C 8,3 C 7,2 C 96 % 1004,5 hPa 0,0 l/m 0 min 0 min 0 W/m 6,4 km/h (2 Bft) 97,87 %
02.05.2020 02:04 8,7 C 8,3 C 7,2 C 96 % 1004,5 hPa 0,0 l/m 0 min 0 min 0 W/m 3,2 km/h (1 Bft) 97,87 %
02.05.2020 02:06 8,7 C 8,3 C 7,2 C 96 % 1004,5 hPa 0,0 l/m 0 min 0 min 0 W/m 6,4 km/h (2 Bft) 100,00 %
02.05.2020 02:08 8,7 C 8,3 C 7,2 C 96 % 1004,5 hPa 0,0 l/m 0 min 0 min 0 W/m 3,2 km/h (1 Bft) 100,00 %
02.05.2020 02:10 8,7 C 7,8 C 7,2 C 96 % 1004,5 hPa 0,0 l/m 0 min 0 min 0 W/m 3,2 km/h (1 Bft) 100,00 %
02.05.2020 02:12 8,7 C 7,8 C 7,2 C 96 % 1004,5 hPa 0,0 l/m 0 min 0 min 0 W/m 6,4 km/h (2 Bft) 97,87 %
02.05.2020 02:14 8,7 C 7,8 C 7,2 C 96 % 1004,4 hPa 0,0 l/m 0 min 0 min 0 W/m 3,2 km/h (1 Bft) 100,00 %
02.05.2020 02:16 8,7 C 7,8 C 7,2 C 96 % 1004,5 hPa 0,0 l/m 0 min 0 min 0 W/m 16,1 km/h (3 Bft) 100,00 %
02.05.2020 02:18 8,7 C 7,8 C 7,2 C 96 % 1004,5 hPa 0,0 l/m 0 min 0 min 0 W/m 9,7 km/h (2 Bft) 97,83 %
02.05.2020 02:20 8,7 C 7,8 C 7,2 C 96 % 1004,5 hPa 0,0 l/m 0 min 0 min 0 W/m 9,7 km/h (2 Bft) 100,00 %
02.05.2020 02:22 8,7 C 7,8 C 7,2 C 96 % 1004,5 hPa 0,0 l/m 0 min 0 min 0 W/m 3,2 km/h (1 Bft) 100,00 %
02.05.2020 02:24 8,7 C 7,8 C 7,2 C 96 % 1004,5 hPa 0,0 l/m 0 min 0 min 0 W/m 3,2 km/h (1 Bft) 100,00 %
02.05.2020 02:26 8,7 C 7,8 C 7,2 C 96 % 1004,5 hPa 0,0 l/m 0 min 0 min 0 W/m 6,4 km/h (2 Bft) 100,00 %
02.05.2020 02:28 8,7 C 7,8 C 7,2 C 96 % 1004,6 hPa 0,0 l/m 0 min 0 min 0 W/m 0,0 km/h (0 Bft) 97,87 %
02.05.2020 02:30 8,7 C 7,8 C 7,2 C 96 % 1004,5 hPa 0,0 l/m 0 min 0 min 0 W/m 6,4 km/h (2 Bft) 97,83 %
02.05.2020 02:32 8,7 C 7,8 C 7,2 C 96 % 1004,6 hPa 0,0 l/m 0 min 0 min 0 W/m 3,2 km/h (1 Bft) 100,00 %
02.05.2020 02:34 8,7 C 7,8 C 7,2 C 96 % 1004,5 hPa 0,0 l/m 0 min 0 min 0 W/m 3,2 km/h (1 Bft) 100,00 %
02.05.2020 02:36 8,7 C 7,8 C 7,2 C 96 % 1004,5 hPa 0,0 l/m 0 min 0 min 0 W/m 3,2 km/h (1 Bft) 95,74 %
02.05.2020 02:38 8,7 C 7,8 C 7,2 C 96 % 1004,5 hPa 0,0 l/m 0 min 0 min 0 W/m 3,2 km/h (1 Bft) 94,74 %
02.05.2020 02:40 8,7 C 7,8 C 7,2 C 96 % 1004,5 hPa 0,0 l/m 0 min 0 min 0 W/m 6,4 km/h (2 Bft) 97,87 %
02.05.2020 02:42 8,7 C 7,8 C 7,2 C 96 % 1004,5 hPa 0,0 l/m 0 min 0 min 0 W/m 6,4 km/h (2 Bft) 97,87 %
02.05.2020 02:44 8,6 C 7,8 C 7,2 C 96 % 1004,5 hPa 0,0 l/m 0 min 0 min 0 W/m 6,4 km/h (2 Bft) 97,87 %
02.05.2020 02:46 8,6 C 7,8 C 7,2 C 96 % 1004,5 hPa 0,0 l/m 0 min 0 min 0 W/m 6,4 km/h (2 Bft) 97,92 %
02.05.2020 02:48 8,6 C 7,8 C 7,2 C 96 % 1004,6 hPa 0,0 l/m 0 min 0 min 0 W/m 0,0 km/h (0 Bft) 97,87 %
02.05.2020 02:50 8,6 C 7,8 C 7,2 C 96 % 1004,6 hPa 0,0 l/m 0 min 0 min 0 W/m 6,4 km/h (2 Bft) 95,74 %
02.05.2020 02:52 8,6 C 7,8 C 7,2 C 96 % 1004,5 hPa 0,0 l/m 0 min 0 min 0 W/m 6,4 km/h (2 Bft) 95,74 %
02.05.2020 02:54 8,6 C 7,8 C 7,2 C 96 % 1004,5 hPa 0,0 l/m 0 min 0 min 0 W/m 6,4 km/h (2 Bft) 97,83 %
02.05.2020 02:56 8,6 C 7,8 C 7,2 C 96 % 1004,6 hPa 0,0 l/m 0 min 0 min 0 W/m 0,0 km/h (0 Bft) 97,87 %
02.05.2020 02:58 8,6 C 7,8 C 7,2 C 96 % 1004,6 hPa 0,0 l/m 0 min 0 min 0 W/m 0,0 km/h (0 Bft) 97,87 %
02.05.2020 03:00 8,6 C 7,8 C 7,2 C 96 % 1004,6 hPa 0,0 l/m 0 min 0 min 0 W/m 3,2 km/h (1 Bft) 97,87 %
02.05.2020 03:02 8,6 C 7,8 C 7,2 C 96 % 1004,5 hPa 0,0 l/m 0 min 0 min 0 W/m 3,2 km/h (1 Bft) 97,87 %
02.05.2020 03:04 8,6 C 7,8 C 7,2 C 96 % 1004,5 hPa 0,0 l/m 0 min 0 min 0 W/m 12,9 km/h (3 Bft) 97,83 %
02.05.2020 03:06 8,6 C 7,8 C 7,2 C 96 % 1004,5 hPa 0,0 l/m 0 min 0 min 0 W/m 3,2 km/h (1 Bft) 97,87 %
02.05.2020 03:08 8,6 C 7,8 C 7,2 C 96 % 1004,5 hPa 0,0 l/m 0 min 0 min 0 W/m 6,4 km/h (2 Bft) 97,87 %
02.05.2020 03:10 8,6 C 7,8 C 7,2 C 96 % 1004,6 hPa 0,0 l/m 0 min 0 min 0 W/m 12,9 km/h (3 Bft) 97,87 %
02.05.2020 03:12 8,6 C 7,8 C 7,2 C 96 % 1004,6 hPa 0,0 l/m 0 min 0 min 0 W/m 3,2 km/h (1 Bft) 97,87 %
02.05.2020 03:14 8,6 C 7,8 C 7,2 C 96 % 1004,6 hPa 0,0 l/m 0 min 0 min 0 W/m 6,4 km/h (2 Bft) 97,87 %
02.05.2020 03:16 8,6 C 7,8 C 7,2 C 96 % 1004,6 hPa 0,0 l/m 0 min 0 min 0 W/m 3,2 km/h (1 Bft) 96,30 %
02.05.2020 03:18 8,6 C 7,8 C 7,2 C 96 % 1004,6 hPa 0,0 l/m 0 min 0 min 0 W/m 6,4 km/h (2 Bft) 100,00 %
02.05.2020 03:20 8,6 C 7,8 C 7,2 C 96 % 1004,6 hPa 0,0 l/m 0 min 0 min 0 W/m 6,4 km/h (2 Bft) 100,00 %
02.05.2020 03:22 8,6 C 7,8 C 7,2 C 96 % 1004,6 hPa 0,0 l/m 0 min 0 min 0 W/m 3,2 km/h (1 Bft) 100,00 %
02.05.2020 03:24 8,6 C 7,8 C 7,2 C 96 % 1004,6 hPa 0,0 l/m 0 min 0 min 0 W/m 3,2 km/h (1 Bft) 100,00 %
02.05.2020 03:26 8,6 C 7,8 C 7,2 C 96 % 1004,7 hPa 0,0 l/m 0 min 0 min 0 W/m 19,3 km/h (3 Bft) 100,00 %
02.05.2020 03:28 8,6 C 7,8 C 7,2 C 96 % 1004,7 hPa 0,0 l/m 0 min 0 min 0 W/m 12,9 km/h (3 Bft) 100,00 %
02.05.2020 03:30 8,6 C 7,8 C 7,2 C 96 % 1004,7 hPa 0,0 l/m 0 min 0 min 0 W/m 6,4 km/h (2 Bft) 100,00 %
02.05.2020 03:32 8,6 C 7,8 C 7,2 C 96 % 1004,7 hPa 0,0 l/m 0 min 0 min 0 W/m 3,2 km/h (1 Bft) 100,00 %
02.05.2020 03:34 8,6 C 7,8 C 7,2 C 96 % 1004,8 hPa 0,0 l/m 0 min 0 min 0 W/m 6,4 km/h (2 Bft) 100,00 %
02.05.2020 03:36 8,5 C 7,8 C 7,2 C 96 % 1004,8 hPa 0,0 l/m 0 min 0 min 0 W/m 12,9 km/h (3 Bft) 100,00 %
02.05.2020 03:38 8,5 C 7,8 C 7,2 C 96 % 1004,8 hPa 0,0 l/m 0 min 0 min 0 W/m 9,7 km/h (2 Bft) 100,00 %
02.05.2020 03:40 8,5 C 7,8 C 7,2 C 96 % 1004,8 hPa 0,0 l/m 0 min 0 min 0 W/m 3,2 km/h (1 Bft) 97,92 %
02.05.2020 03:42 8,5 C 7,8 C 7,2 C 96 % 1004,7 hPa 0,0 l/m 0 min 0 min 0 W/m 9,7 km/h (2 Bft) 97,87 %
02.05.2020 03:44 8,5 C 7,8 C 7,2 C 96 % 1004,7 hPa 0,0 l/m 0 min 0 min 0 W/m 6,4 km/h (2 Bft) 97,87 %
02.05.2020 03:46 8,5 C 7,8 C 7,2 C 96 % 1004,7 hPa 0,0 l/m 0 min 0 min 0 W/m 12,9 km/h (3 Bft) 97,87 %
02.05.2020 03:48 8,5 C 7,8 C 7,2 C 96 % 1004,8 hPa 0,0 l/m 0 min 0 min 0 W/m 6,4 km/h (2 Bft) 97,87 %
02.05.2020 03:50 8,5 C 7,8 C 7,2 C 96 % 1004,8 hPa 0,0 l/m 0 min 0 min 0 W/m 9,7 km/h (2 Bft) 97,83 %
02.05.2020 03:52 8,5 C 7,8 C 7,2 C 96 % 1004,8 hPa 0,0 l/m 0 min 0 min 0 W/m 6,4 km/h (2 Bft) 96,36 %
02.05.2020 03:54 8,4 C 7,8 C 7,2 C 96 % 1004,9 hPa 0,0 l/m 0 min 0 min 0 W/m 6,4 km/h (2 Bft) 97,83 %
02.05.2020 03:56 8,4 C 7,8 C 7,2 C 96 % 1004,8 hPa 0,0 l/m 0 min 0 min 0 W/m 3,2 km/h (1 Bft) 97,87 %
02.05.2020 03:58 8,4 C 7,8 C 7,2 C 96 % 1004,9 hPa 0,0 l/m 0 min 0 min 0 W/m 6,4 km/h (2 Bft) 97,87 %
02.05.2020 04:00 8,4 C 7,8 C 7,2 C 96 % 1004,9 hPa 0,0 l/m 0 min 0 min 0 W/m 0,0 km/h (0 Bft) 97,87 %
02.05.2020 04:02 8,4 C 7,8 C 7,2 C 96 % 1004,9 hPa 0,0 l/m 0 min 0 min 0 W/m 6,4 km/h (2 Bft) 96,67 %
02.05.2020 04:04 8,4 C 7,8 C 7,2 C 96 % 1004,9 hPa 0,0 l/m 0 min 0 min 0 W/m 3,2 km/h (1 Bft) 97,87 %
02.05.2020 04:06 8,4 C 7,8 C 7,2 C 96 % 1004,9 hPa 0,0 l/m 0 min 0 min 0 W/m 6,4 km/h (2 Bft) 97,37 %
02.05.2020 04:08 8,4 C 7,8 C 7,2 C 96 % 1004,9 hPa 0,0 l/m 0 min 0 min 0 W/m 6,4 km/h (2 Bft) 95,83 %
02.05.2020 04:10 8,4 C 7,8 C 7,2 C 96 % 1004,9 hPa 0,0 l/m 0 min 0 min 0 W/m 3,2 km/h (1 Bft) 97,87 %
02.05.2020 04:12 8,4 C 7,8 C 7,2 C 96 % 1004,9 hPa 0,0 l/m 0 min 0 min 0 W/m 3,2 km/h (1 Bft) 95,74 %
02.05.2020 04:14 8,4 C 7,8 C 7,2 C 96 % 1004,9 hPa 0,0 l/m 0 min 0 min 0 W/m 3,2 km/h (1 Bft) 97,83 %
02.05.2020 04:16 8,4 C 7,8 C 7,2 C 96 % 1005,0 hPa 0,0 l/m 0 min 0 min 0 W/m 12,9 km/h (3 Bft) 97,87 %
02.05.2020 04:18 8,4 C 7,8 C 7,2 C 96 % 1004,9 hPa 0,0 l/m 0 min 0 min 0 W/m 12,9 km/h (3 Bft) 95,74 %
02.05.2020 04:20 8,4 C 7,8 C 7,2 C 96 % 1004,9 hPa 0,0 l/m 0 min 0 min 0 W/m 6,4 km/h (2 Bft) 97,87 %
02.05.2020 04:22 8,4 C 7,8 C 7,2 C 96 % 1004,9 hPa 0,0 l/m 0 min 0 min 0 W/m 6,4 km/h (2 Bft) 97,87 %
02.05.2020 04:24 8,4 C 7,8 C 7,2 C 96 % 1005,0 hPa 0,0 l/m 0 min 0 min 0 W/m 19,3 km/h (3 Bft) 95,74 %
02.05.2020 04:26 8,4 C 7,8 C 7,2 C 96 % 1005,0 hPa 0,0 l/m 0 min 0 min 0 W/m 9,7 km/h (2 Bft) 89,13 %
02.05.2020 04:28 8,4 C 7,8 C 6,7 C 96 % 1004,9 hPa 0,0 l/m 0 min 0 min 0 W/m 12,9 km/h (3 Bft) 93,62 %
02.05.2020 04:30 8,4 C 7,8 C 6,7 C 96 % 1004,9 hPa 0,0 l/m 0 min 0 min 0 W/m 12,9 km/h (3 Bft) 97,87 %
02.05.2020 04:32 8,4 C 7,8 C 6,7 C 96 % 1005,0 hPa 0,0 l/m 0 min 0 min 0 W/m 9,7 km/h (2 Bft) 97,87 %
02.05.2020 04:34 8,4 C 7,8 C 6,7 C 96 % 1004,9 hPa 0,0 l/m 0 min 0 min 0 W/m 6,4 km/h (2 Bft) 100,00 %
02.05.2020 04:36 8,4 C 7,8 C 7,2 C 96 % 1005,0 hPa 0,0 l/m 0 min 0 min 0 W/m 3,2 km/h (1 Bft) 97,87 %
02.05.2020 04:38 8,4 C 7,8 C 6,7 C 96 % 1005,0 hPa 0,0 l/m 0 min 0 min 0 W/m 6,4 km/h (2 Bft) 98,15 %
02.05.2020 04:40 8,4 C 7,8 C 6,7 C 96 % 1005,1 hPa 0,0 l/m 0 min 0 min 0 W/m 6,4 km/h (2 Bft) 97,37 %
02.05.2020 04:42 8,3 C 7,8 C 6,7 C 96 % 1005,0 hPa 0,0 l/m 0 min 0 min 0 W/m 12,9 km/h (3 Bft) 97,87 %
02.05.2020 04:44 8,3 C 7,8 C 6,7 C 96 % 1005,1 hPa 0,0 l/m 0 min 0 min 0 W/m 12,9 km/h (3 Bft) 97,83 %
02.05.2020 04:46 8,3 C 7,8 C 6,7 C 96 % 1005,1 hPa 0,0 l/m 0 min 0 min 0 W/m 12,9 km/h (3 Bft) 95,92 %
02.05.2020 04:48 8,3 C 7,8 C 6,7 C 96 % 1005,1 hPa 0,0 l/m 0 min 0 min 0 W/m 16,1 km/h (3 Bft) 97,83 %
02.05.2020 04:50 8,3 C 7,8 C 6,7 C 96 % 1005,1 hPa 0,0 l/m 0 min 0 min 0 W/m 6,4 km/h (2 Bft) 97,87 %
02.05.2020 04:52 8,3 C 7,8 C 6,7 C 96 % 1005,1 hPa 0,0 l/m 0 min 0 min 0 W/m 6,4 km/h (2 Bft) 97,87 %
02.05.2020 04:54 8,3 C 7,8 C 6,7 C 96 % 1005,1 hPa 0,0 l/m 0 min 0 min 0 W/m 3,2 km/h (1 Bft) 97,87 %
02.05.2020 04:56 8,3 C 7,8 C 6,7 C 96 % 1005,1 hPa 0,0 l/m 0 min 0 min 0 W/m 16,1 km/h (3 Bft) 93,62 %
02.05.2020 04:58 8,3 C 7,8 C 6,7 C 96 % 1005,1 hPa 0,0 l/m 0 min 0 min 0 W/m 6,4 km/h (2 Bft) 97,87 %
02.05.2020 05:00 8,3 C 7,8 C 6,7 C 96 % 1005,1 hPa 0,0 l/m 0 min 2 min 0 W/m 6,4 km/h (2 Bft) 97,83 %
02.05.2020 05:02 8,3 C 7,8 C 6,7 C 96 % 1005,2 hPa 0,0 l/m 0 min 0 min 0 W/m 12,9 km/h (3 Bft) 97,87 %
02.05.2020 05:04 8,3 C 7,8 C 6,7 C 96 % 1005,2 hPa 0,0 l/m 0 min 0 min 0 W/m 16,1 km/h (3 Bft) 97,87 %
02.05.2020 05:06 8,3 C 7,8 C 6,7 C 96 % 1005,2 hPa 0,0 l/m 0 min 0 min 0 W/m 6,4 km/h (2 Bft) 93,62 %
02.05.2020 05:08 8,3 C 7,8 C 6,7 C 96 % 1005,2 hPa 0,0 l/m 0 min 0 min 0 W/m 6,4 km/h (2 Bft) 95,74 %
02.05.2020 05:10 8,3 C 7,8 C 6,7 C 96 % 1005,2 hPa 0,0 l/m 0 min 0 min 0 W/m 3,2 km/h (1 Bft) 95,74 %
02.05.2020 05:12 8,3 C 7,8 C 6,7 C 96 % 1005,1 hPa 0,0 l/m 0 min 0 min 0 W/m 16,1 km/h (3 Bft) 91,30 %
02.05.2020 05:14 8,3 C 7,2 C 6,7 C 96 % 1005,2 hPa 0,0 l/m 0 min 0 min 0 W/m 6,4 km/h (2 Bft) 95,74 %
02.05.2020 05:16 8,3 C 7,2 C 6,7 C 96 % 1005,2 hPa 0,0 l/m 0 min 0 min 0 W/m 3,2 km/h (1 Bft) 95,74 %
02.05.2020 05:18 8,3 C 7,2 C 6,7 C 96 % 1005,2 hPa 0,0 l/m 0 min 0 min 0 W/m 6,4 km/h (2 Bft) 95,74 %
02.05.2020 05:20 8,3 C 7,2 C 6,7 C 96 % 1005,2 hPa 0,0 l/m 0 min 0 min 0 W/m 6,4 km/h (2 Bft) 95,74 %
02.05.2020 05:22 8,3 C 7,2 C 6,7 C 96 % 1005,2 hPa 0,0 l/m 0 min 0 min 0 W/m 16,1 km/h (3 Bft) 95,74 %
02.05.2020 05:24 8,3 C 7,2 C 6,7 C 96 % 1005,3 hPa 0,0 l/m 0 min 0 min 0 W/m 6,4 km/h (2 Bft) 95,65 %
02.05.2020 05:26 8,2 C 7,2 C 6,7 C 96 % 1005,4 hPa 0,0 l/m 0 min 0 min 0 W/m 6,4 km/h (2 Bft) 95,74 %
02.05.2020 05:28 8,2 C 7,2 C 6,7 C 96 % 1005,4 hPa 0,0 l/m 0 min 0 min 0 W/m 3,2 km/h (1 Bft) 93,62 %
02.05.2020 05:30 8,2 C 7,2 C 6,7 C 96 % 1005,4 hPa 0,0 l/m 0 min 0 min 0 W/m 3,2 km/h (1 Bft) 95,74 %
02.05.2020 05:32 8,2 C 7,2 C 6,7 C 96 % 1005,4 hPa 0,0 l/m 0 min 0 min 0 W/m 9,7 km/h (2 Bft) 95,74 %
02.05.2020 05:34 8,2 C 7,8 C 6,7 C 96 % 1005,4 hPa 0,0 l/m 0 min 0 min 0 W/m 12,9 km/h (3 Bft) 95,74 %
02.05.2020 05:36 8,2 C 7,8 C 6,7 C 96 % 1005,5 hPa 0,0 l/m 0 min 0 min 0 W/m 12,9 km/h (3 Bft) 95,65 %
02.05.2020 05:38 8,2 C 7,8 C 6,7 C 96 % 1005,5 hPa 0,0 l/m 0 min 0 min 0 W/m 9,7 km/h (2 Bft) 94,44 %
02.05.2020 05:40 8,2 C 7,8 C 6,7 C 96 % 1005,4 hPa 0,0 l/m 0 min 0 min 0 W/m 6,4 km/h (2 Bft) 95,74 %
02.05.2020 05:42 8,3 C 7,8 C 6,7 C 96 % 1005,4 hPa 0,0 l/m 0 min 0 min 0 W/m 6,4 km/h (2 Bft) 94,74 %
02.05.2020 05:44 8,3 C 7,8 C 6,7 C 96 % 1005,4 hPa 0,0 l/m 0 min 0 min 0 W/m 3,2 km/h (1 Bft) 95,74 %
02.05.2020 05:46 8,3 C 7,8 C 6,7 C 96 % 1005,4 hPa 0,0 l/m 0 min 0 min 0 W/m 3,2 km/h (1 Bft) 95,74 %
02.05.2020 05:48 8,3 C 7,8 C 6,7 C 96 % 1005,4 hPa 0,0 l/m 0 min 0 min 0 W/m 6,4 km/h (2 Bft) 100,00 %
02.05.2020 05:50 8,3 C 7,8 C 7,2 C 96 % 1005,5 hPa 0,0 l/m 0 min 0 min 0 W/m 6,4 km/h (2 Bft) 100,00 %
02.05.2020 05:52 8,3 C 7,8 C 7,2 C 96 % 1005,5 hPa 0,0 l/m 0 min 0 min 0 W/m 3,2 km/h (1 Bft) 100,00 %
02.05.2020 05:54 8,3 C 7,8 C 7,2 C 96 % 1005,5 hPa 0,0 l/m 0 min 0 min 0 W/m 6,4 km/h (2 Bft) 100,00 %
02.05.2020 05:56 8,3 C 7,8 C 7,2 C 96 % 1005,5 hPa 0,0 l/m 0 min 0 min 0 W/m 12,9 km/h (3 Bft) 97,87 %
02.05.2020 05:58 8,3 C 7,8 C 7,2 C 96 % 1005,5 hPa 0,0 l/m 0 min 0 min 0 W/m 12,9 km/h (3 Bft) 100,00 %
02.05.2020 06:00 8,3 C 7,8 C 7,2 C 96 % 1005,5 hPa 0,0 l/m 0 min 0 min 0 W/m 6,4 km/h (2 Bft) 100,00 %
02.05.2020 06:02 8,3 C 7,8 C 7,2 C 96 % 1005,5 hPa 0,0 l/m 0 min 0 min 0 W/m 19,3 km/h (3 Bft) 95,74 %
02.05.2020 06:04 8,4 C 7,8 C 7,2 C 96 % 1005,5 hPa 0,0 l/m 0 min 0 min 0 W/m 3,2 km/h (1 Bft) 55,56 %
02.05.2020 06:08 8,4 C 7,8 C 7,2 C 96 % 1005,5 hPa 0,0 l/m 0 min 0 min 0 W/m 9,7 km/h (2 Bft) 98,94 %
02.05.2020 06:10 8,4 C 7,8 C 7,2 C 96 % 1005,5 hPa 0,0 l/m 0 min 0 min 0 W/m 9,7 km/h (2 Bft) 100,00 %
02.05.2020 06:12 8,4 C 7,8 C 7,2 C 96 % 1005,5 hPa 0,0 l/m 0 min 0 min 0 W/m 6,4 km/h (2 Bft) 100,00 %
02.05.2020 06:14 8,4 C 7,8 C 7,2 C 96 % 1005,5 hPa 0,0 l/m 0 min 0 min 0 W/m 6,4 km/h (2 Bft) 97,87 %
02.05.2020 06:16 8,4 C 7,8 C 7,2 C 96 % 1005,5 hPa 0,0 l/m 0 min 0 min 0 W/m 6,4 km/h (2 Bft) 100,00 %
02.05.2020 06:18 8,4 C 7,8 C 7,2 C 96 % 1005,5 hPa 0,0 l/m 0 min 0 min 0 W/m 6,4 km/h (2 Bft) 100,00 %
02.05.2020 06:20 8,4 C 7,8 C 7,2 C 96 % 1005,5 hPa 0,0 l/m 0 min 0 min 0 W/m 6,4 km/h (2 Bft) 100,00 %
02.05.2020 06:22 8,4 C 7,8 C 7,2 C 96 % 1005,5 hPa 0,0 l/m 0 min 0 min 0 W/m 0,0 km/h (0 Bft) 100,00 %
02.05.2020 06:24 8,4 C 7,8 C 7,2 C 96 % 1005,6 hPa 0,0 l/m 0 min 0 min 0 W/m 3,2 km/h (1 Bft) 100,00 %
02.05.2020 06:26 8,4 C 7,8 C 7,2 C 96 % 1005,6 hPa 0,0 l/m 0 min 0 min 0 W/m 6,4 km/h (2 Bft) 97,87 %
02.05.2020 06:28 8,4 C 7,8 C 7,2 C 96 % 1005,6 hPa 0,0 l/m 0 min 0 min 0 W/m 12,9 km/h (3 Bft) 97,87 %
02.05.2020 06:30 8,5 C 7,8 C 7,2 C 96 % 1005,6 hPa 0,0 l/m 0 min 0 min 4 W/m 6,4 km/h (2 Bft) 100,00 %
02.05.2020 06:32 8,5 C 7,8 C 7,2 C 96 % 1005,6 hPa 0,0 l/m 0 min 0 min 5 W/m 6,4 km/h (2 Bft) 100,00 %
02.05.2020 06:34 8,5 C 7,8 C 7,2 C 96 % 1005,6 hPa 0,0 l/m 0 min 0 min 5 W/m 22,5 km/h (4 Bft) 100,00 %
02.05.2020 06:36 8,5 C 7,8 C 7,2 C 96 % 1005,7 hPa 0,0 l/m 0 min 0 min 5 W/m 9,7 km/h (2 Bft) 100,00 %
02.05.2020 06:38 8,5 C 7,8 C 7,2 C 96 % 1005,6 hPa 0,0 l/m 0 min 0 min 6 W/m 16,1 km/h (3 Bft) 100,00 %
02.05.2020 06:40 8,5 C 7,8 C 7,2 C 96 % 1005,6 hPa 0,0 l/m 0 min 0 min 8 W/m 6,4 km/h (2 Bft) 97,37 %
02.05.2020 06:42 8,5 C 7,8 C 7,2 C 96 % 1005,6 hPa 0,0 l/m 0 min 0 min 11 W/m 3,2 km/h (1 Bft) 97,96 %
02.05.2020 06:44 8,6 C 7,8 C 7,2 C 96 % 1005,6 hPa 0,0 l/m 0 min 0 min 11 W/m 12,9 km/h (3 Bft) 97,83 %
02.05.2020 06:46 8,6 C 7,8 C 7,2 C 96 % 1005,7 hPa 0,0 l/m 0 min 0 min 12 W/m 22,5 km/h (4 Bft) 97,87 %
02.05.2020 06:48 8,6 C 7,8 C 7,2 C 96 % 1005,7 hPa 0,0 l/m 0 min 0 min 12 W/m 12,9 km/h (3 Bft) 95,74 %
02.05.2020 06:50 8,6 C 8,3 C 7,2 C 96 % 1005,7 hPa 0,0 l/m 0 min 0 min 12 W/m 12,9 km/h (3 Bft) 97,87 %
02.05.2020 06:52 8,6 C 8,3 C 7,2 C 96 % 1005,7 hPa 0,0 l/m 0 min 0 min 13 W/m 16,1 km/h (3 Bft) 95,74 %
02.05.2020 06:54 8,6 C 8,3 C 7,2 C 96 % 1005,7 hPa 0,0 l/m 0 min 0 min 14 W/m 3,2 km/h (1 Bft) 97,87 %
02.05.2020 06:56 8,6 C 8,3 C 7,2 C 96 % 1005,7 hPa 0,0 l/m 0 min 0 min 14 W/m 32,2 km/h (5 Bft) 97,83 %
02.05.2020 06:58 8,6 C 8,3 C 7,2 C 96 % 1005,8 hPa 0,0 l/m 0 min 0 min 14 W/m 16,1 km/h (3 Bft) 95,74 %
02.05.2020 07:00 8,6 C 8,3 C 7,2 C 96 % 1005,8 hPa 0,0 l/m 0 min 0 min 14 W/m 16,1 km/h (3 Bft) 97,87 %
02.05.2020 07:02 8,6 C 8,3 C 7,2 C 96 % 1005,8 hPa 0,0 l/m 0 min 0 min 14 W/m 12,9 km/h (3 Bft) 97,87 %
02.05.2020 07:04 8,7 C 8,3 C 7,8 C 96 % 1005,8 hPa 0,0 l/m 0 min 0 min 15 W/m 9,7 km/h (2 Bft) 95,74 %
02.05.2020 07:06 8,7 C 8,3 C 7,8 C 96 % 1005,8 hPa 0,0 l/m 0 min 0 min 16 W/m 3,2 km/h (1 Bft) 98,15 %
02.05.2020 07:08 8,7 C 8,3 C 7,8 C 96 % 1005,8 hPa 0,0 l/m 0 min 0 min 16 W/m 6,4 km/h (2 Bft) 97,87 %
02.05.2020 07:10 8,7 C 8,3 C 7,8 C 96 % 1005,8 hPa 0,0 l/m 0 min 0 min 20 W/m 9,7 km/h (2 Bft) 97,37 %
02.05.2020 07:12 8,7 C 8,3 C 7,8 C 96 % 1005,9 hPa 0,0 l/m 0 min 0 min 21 W/m 6,4 km/h (2 Bft) 95,83 %
02.05.2020 07:14 8,7 C 8,3 C 7,8 C 96 % 1005,9 hPa 0,0 l/m 0 min 0 min 21 W/m 3,2 km/h (1 Bft) 97,87 %
02.05.2020 07:16 8,7 C 8,3 C 7,8 C 96 % 1005,9 hPa 0,0 l/m 0 min 0 min 24 W/m 6,4 km/h (2 Bft) 97,87 %
02.05.2020 07:18 8,7 C 8,3 C 7,8 C 96 % 1006,0 hPa 0,0 l/m 0 min 0 min 26 W/m 12,9 km/h (3 Bft) 97,87 %
02.05.2020 07:20 8,7 C 8,3 C 7,8 C 96 % 1005,9 hPa 0,0 l/m 0 min 0 min 29 W/m 6,4 km/h (2 Bft) 97,83 %
02.05.2020 07:22 8,7 C 8,3 C 7,8 C 96 % 1006,0 hPa 0,0 l/m 0 min 0 min 29 W/m 22,5 km/h (4 Bft) 91,49 %
02.05.2020 07:24 8,8 C 8,3 C 7,8 C 96 % 1006,0 hPa 0,0 l/m 0 min 0 min 29 W/m 19,3 km/h (3 Bft) 95,74 %
02.05.2020 07:26 8,8 C 8,3 C 7,8 C 96 % 1006,0 hPa 0,0 l/m 0 min 0 min 28 W/m 22,5 km/h (4 Bft) 97,87 %
02.05.2020 07:28 8,8 C 8,3 C 7,8 C 96 % 1006,0 hPa 0,0 l/m 0 min 0 min 26 W/m 19,3 km/h (3 Bft) 100,00 %
02.05.2020 07:30 8,8 C 8,3 C 7,8 C 96 % 1006,1 hPa 0,0 l/m 0 min 0 min 27 W/m 25,7 km/h (4 Bft) 97,87 %
02.05.2020 07:32 8,8 C 8,3 C 7,8 C 96 % 1006,0 hPa 0,0 l/m 0 min 0 min 27 W/m 6,4 km/h (2 Bft) 97,83 %
02.05.2020 07:34 8,8 C 8,3 C 7,8 C 96 % 1006,1 hPa 0,0 l/m 0 min 0 min 34 W/m 6,4 km/h (2 Bft) 97,87 %
02.05.2020 07:36 8,8 C 8,3 C 7,8 C 96 % 1006,2 hPa 0,0 l/m 0 min 0 min 39 W/m 19,3 km/h (3 Bft) 97,87 %
02.05.2020 07:38 8,8 C 8,3 C 7,8 C 96 % 1006,2 hPa 0,0 l/m 0 min 0 min 43 W/m 9,7 km/h (2 Bft) 100,00 %
02.05.2020 07:40 8,8 C 8,9 C 7,8 C 96 % 1006,2 hPa 0,0 l/m 0 min 0 min 50 W/m 12,9 km/h (3 Bft) 97,87 %
02.05.2020 07:42 8,8 C 8,9 C 8,3 C 96 % 1006,3 hPa 0,0 l/m 0 min 0 min 64 W/m 12,9 km/h (3 Bft) 98,15 %
02.05.2020 07:44 8,9 C 8,9 C 8,3 C 96 % 1006,1 hPa 0,0 l/m 0 min 0 min 65 W/m 6,4 km/h (2 Bft) 95,74 %
02.05.2020 07:46 8,9 C 8,9 C 8,3 C 95 % 1006,2 hPa 0,0 l/m 0 min 0 min 70 W/m 6,4 km/h (2 Bft) 97,83 %
02.05.2020 07:48 8,9 C 8,9 C 8,3 C 95 % 1006,2 hPa 0,0 l/m 0 min 0 min 68 W/m 19,3 km/h (3 Bft) 95,74 %
02.05.2020 07:50 8,9 C 8,9 C 8,3 C 95 % 1006,2 hPa 0,0 l/m 0 min 0 min 75 W/m 12,9 km/h (3 Bft) 100,00 %
02.05.2020 07:52 8,9 C 8,9 C 8,3 C 95 % 1006,1 hPa 0,0 l/m 0 min 0 min 92 W/m 12,9 km/h (3 Bft) 95,92 %
02.05.2020 07:54 9,0 C 8,9 C 8,3 C 95 % 1006,1 hPa 0,0 l/m 0 min 0 min 99 W/m 16,1 km/h (3 Bft) 97,87 %
02.05.2020 07:56 9,0 C 9,4 C 8,3 C 95 % 1006,1 hPa 0,0 l/m 0 min 0 min 100 W/m 16,1 km/h (3 Bft) 97,83 %
02.05.2020 07:58 9,0 C 9,4 C 8,3 C 95 % 1006,1 hPa 0,0 l/m 0 min 0 min 104 W/m 12,9 km/h (3 Bft) 97,87 %
02.05.2020 08:00 9,1 C 9,4 C 8,9 C 95 % 1006,2 hPa 0,0 l/m 0 min 0 min 125 W/m 12,9 km/h (3 Bft) 97,87 %
02.05.2020 08:02 9,1 C 9,4 C 8,9 C 95 % 1006,2 hPa 0,0 l/m 0 min 0 min 135 W/m 6,4 km/h (2 Bft) 95,74 %
02.05.2020 08:04 9,1 C 9,4 C 8,9 C 95 % 1006,3 hPa 0,0 l/m 0 min 0 min 137 W/m 16,1 km/h (3 Bft) 97,87 %
02.05.2020 08:06 9,2 C 9,4 C 8,9 C 95 % 1006,3 hPa 0,0 l/m 0 min 0 min 86 W/m 12,9 km/h (3 Bft) 97,87 %
02.05.2020 08:08 9,2 C 9,4 C 8,9 C 95 % 1006,3 hPa 0,0 l/m 0 min 0 min 67 W/m 9,7 km/h (2 Bft) 97,83 %
02.05.2020 08:10 9,2 C 9,4 C 8,9 C 95 % 1006,3 hPa 0,0 l/m 0 min 0 min 57 W/m 12,9 km/h (3 Bft) 97,87 %
02.05.2020 08:12 9,2 C 8,9 C 8,3 C 95 % 1006,4 hPa 0,0 l/m 0 min 0 min 43 W/m 16,1 km/h (3 Bft) 97,87 %
02.05.2020 08:14 9,2 C 8,9 C 8,3 C 95 % 1006,4 hPa 0,0 l/m 0 min 0 min 30 W/m 9,7 km/h (2 Bft) 97,87 %
02.05.2020 08:16 9,2 C 8,9 C 8,3 C 95 % 1006,6 hPa 0,0 l/m 0 min 0 min 32 W/m 19,3 km/h (3 Bft) 98,15 %
02.05.2020 08:18 9,2 C 8,9 C 8,3 C 95 % 1006,5 hPa 0,0 l/m 0 min 0 min 30 W/m 9,7 km/h (2 Bft) 91,49 %
02.05.2020 08:20 9,2 C 8,9 C 8,3 C 95 % 1006,5 hPa 0,0 l/m 0 min 0 min 36 W/m 12,9 km/h (3 Bft) 97,87 %
02.05.2020 08:22 9,2 C 8,9 C 8,3 C 95 % 1006,5 hPa 0,0 l/m 0 min 0 min 56 W/m 16,1 km/h (3 Bft) 97,83 %
02.05.2020 08:24 9,2 C 8,9 C 8,3 C 94 % 1006,5 hPa 0,0 l/m 0 min 0 min 77 W/m 22,5 km/h (4 Bft) 97,87 %
02.05.2020 08:26 9,2 C 9,4 C 8,3 C 94 % 1006,4 hPa 0,0 l/m 0 min 0 min 126 W/m 12,9 km/h (3 Bft) 97,37 %
02.05.2020 08:28 9,2 C 9,4 C 8,9 C 94 % 1006,4 hPa 0,0 l/m 0 min 0 min 116 W/m 12,9 km/h (3 Bft) 95,74 %
02.05.2020 08:30 9,2 C 10,6 C 8,9 C 94 % 1006,5 hPa 0,0 l/m 0 min 0 min 156 W/m 6,4 km/h (2 Bft) 97,87 %
02.05.2020 08:32 9,2 C 11,7 C 8,9 C 94 % 1006,6 hPa 0,0 l/m 2 min 0 min 214 W/m 12,9 km/h (3 Bft) 97,87 %
02.05.2020 08:34 9,2 C 11,7 C 8,9 C 94 % 1006,5 hPa 0,0 l/m 2 min 0 min 226 W/m 16,1 km/h (3 Bft) 97,87 %
02.05.2020 08:36 9,3 C 11,7 C 8,9 C 94 % 1006,5 hPa 0,0 l/m 2 min 0 min 230 W/m 16,1 km/h (3 Bft) 97,83 %
02.05.2020 08:38 9,3 C 11,1 C 8,9 C 94 % 1006,6 hPa 0,0 l/m 0 min 0 min 173 W/m 19,3 km/h (3 Bft) 97,96 %
02.05.2020 08:40 9,4 C 11,1 C 9,4 C 94 % 1006,6 hPa 0,0 l/m 2 min 0 min 242 W/m 6,4 km/h (2 Bft) 97,87 %
02.05.2020 08:42 9,4 C 11,1 C 8,9 C 94 % 1006,6 hPa 0,0 l/m 2 min 0 min 207 W/m 9,7 km/h (2 Bft) 97,83 %
02.05.2020 08:44 9,4 C 10,0 C 8,9 C 94 % 1006,6 hPa 0,0 l/m 0 min 0 min 106 W/m 12,9 km/h (3 Bft) 97,87 %
02.05.2020 08:46 9,5 C 10,0 C 8,9 C 94 % 1006,7 hPa 0,0 l/m 0 min 0 min 147 W/m 12,9 km/h (3 Bft) 97,87 %
02.05.2020 08:48 9,5 C 10,0 C 9,4 C 93 % 1006,9 hPa 0,0 l/m 0 min 0 min 177 W/m 16,1 km/h (3 Bft) 97,87 %
02.05.2020 08:50 9,6 C 10,0 C 9,4 C 93 % 1006,8 hPa 0,0 l/m 0 min 0 min 137 W/m 19,3 km/h (3 Bft) 100,00 %
02.05.2020 08:52 9,6 C 9,4 C 8,9 C 93 % 1006,8 hPa 0,0 l/m 0 min 0 min 88 W/m 16,1 km/h (3 Bft) 97,87 %
02.05.2020 08:54 9,6 C 9,4 C 8,9 C 93 % 1006,9 hPa 0,0 l/m 0 min 0 min 84 W/m 12,9 km/h (3 Bft) 97,83 %
02.05.2020 08:56 9,6 C 9,4 C 8,9 C 93 % 1006,9 hPa 0,0 l/m 0 min 0 min 68 W/m 19,3 km/h (3 Bft) 95,74 %
02.05.2020 08:58 9,6 C 9,4 C 8,9 C 93 % 1007,0 hPa 0,0 l/m 0 min 0 min 53 W/m 6,4 km/h (2 Bft) 95,74 %
02.05.2020 09:00 9,6 C 9,4 C 8,9 C 93 % 1006,9 hPa 0,0 l/m 0 min 0 min 64 W/m 16,1 km/h (3 Bft) 98,15 %
02.05.2020 09:02 9,6 C 9,4 C 8,9 C 92 % 1006,9 hPa 0,0 l/m 0 min 0 min 67 W/m 6,4 km/h (2 Bft) 97,87 %
02.05.2020 09:04 9,6 C 9,4 C 8,9 C 92 % 1006,9 hPa 0,0 l/m 0 min 0 min 79 W/m 12,9 km/h (3 Bft) 97,87 %
02.05.2020 09:06 9,6 C 9,4 C 8,9 C 92 % 1007,1 hPa 0,0 l/m 0 min 0 min 81 W/m 12,9 km/h (3 Bft) 97,87 %
02.05.2020 09:08 9,6 C 9,4 C 8,9 C 92 % 1007,1 hPa 0,0 l/m 0 min 0 min 78 W/m 6,4 km/h (2 Bft) 97,83 %
02.05.2020 09:10 9,6 C 9,4 C 8,9 C 92 % 1007,1 hPa 0,0 l/m 0 min 0 min 89 W/m 12,9 km/h (3 Bft) 97,37 %
02.05.2020 09:12 9,5 C 9,4 C 8,9 C 92 % 1007,2 hPa 0,0 l/m 0 min 0 min 112 W/m 16,1 km/h (3 Bft) 95,74 %
02.05.2020 09:14 9,5 C 9,4 C 8,9 C 92 % 1007,0 hPa 0,0 l/m 0 min 0 min 88 W/m 16,1 km/h (3 Bft) 97,87 %
02.05.2020 09:16 9,5 C 9,4 C 8,9 C 92 % 1007,1 hPa 0,0 l/m 0 min 0 min 127 W/m 6,4 km/h (2 Bft) 97,87 %
02.05.2020 09:18 9,5 C 10,0 C 9,4 C 92 % 1007,1 hPa 0,0 l/m 0 min 0 min 205 W/m 12,9 km/h (3 Bft) 95,74 %
02.05.2020 09:20 9,6 C 10,6 C 10,0 C 92 % 1007,1 hPa 0,0 l/m 2 min 0 min 301 W/m 16,1 km/h (3 Bft) 95,83 %
02.05.2020 09:22 9,6 C 10,0 C 9,4 C 92 % 1007,1 hPa 0,0 l/m 0 min 0 min 153 W/m 12,9 km/h (3 Bft) 97,87 %
02.05.2020 09:24 9,7 C 10,0 C 9,4 C 92 % 1007,2 hPa 0,0 l/m 0 min 0 min 127 W/m 12,9 km/h (3 Bft) 95,74 %
02.05.2020 09:26 9,7 C 10,0 C 9,4 C 92 % 1007,2 hPa 0,0 l/m 0 min 0 min 161 W/m 6,4 km/h (2 Bft) 97,87 %
02.05.2020 09:28 9,7 C 10,0 C 9,4 C 92 % 1007,3 hPa 0,0 l/m 0 min 0 min 153 W/m 12,9 km/h (3 Bft) 97,83 %
02.05.2020 09:30 9,7 C 10,0 C 9,4 C 92 % 1007,2 hPa 0,0 l/m 0 min 0 min 183 W/m 12,9 km/h (3 Bft) 95,74 %
02.05.2020 09:32 9,8 C 10,6 C 9,4 C 92 % 1007,2 hPa 0,0 l/m 0 min 0 min 237 W/m 12,9 km/h (3 Bft) 95,74 %
02.05.2020 09:34 9,8 C 10,6 C 9,4 C 92 % 1007,2 hPa 0,0 l/m 0 min 0 min 173 W/m 0,0 km/h (0 Bft) 87,50 %
02.05.2020 09:36 9,9 C 10,6 C 9,4 C 92 % 1007,3 hPa 0,0 l/m 0 min 0 min 162 W/m 6,4 km/h (2 Bft) 40,00 %
02.05.2020 09:41 9,9 C 10,6 C 9,4 C 91 % 1007,2 hPa 0,0 l/m 0 min 0 min 160 W/m 12,9 km/h (3 Bft) 643,60 %
02.05.2020 09:42 10,0 C 10,6 C 9,4 C 91 % 1007,2 hPa 0,0 l/m 0 min 0 min 169 W/m 16,1 km/h (3 Bft) 91,30 %
02.05.2020 09:44 10,0 C 10,6 C 9,4 C 91 % 1007,3 hPa 0,0 l/m 0 min 0 min 136 W/m 12,9 km/h (3 Bft) 93,62 %
02.05.2020 09:46 10,1 C 10,6 C 9,4 C 91 % 1007,3 hPa 0,0 l/m 0 min 0 min 123 W/m 6,4 km/h (2 Bft) 97,87 %
02.05.2020 09:48 10,1 C 10,6 C 9,4 C 91 % 1007,3 hPa 0,0 l/m 0 min 0 min 192 W/m 9,7 km/h (2 Bft) 97,87 %
02.05.2020 09:50 10,1 C 10,6 C 10,0 C 91 % 1007,3 hPa 0,0 l/m 0 min 0 min 264 W/m 22,5 km/h (4 Bft) 97,87 %
02.05.2020 09:52 10,2 C 10,6 C 10,0 C 91 % 1007,4 hPa 0,0 l/m 0 min 0 min 230 W/m 12,9 km/h (3 Bft) 93,62 %
02.05.2020 09:54 10,2 C 10,0 C 10,0 C 91 % 1007,4 hPa 0,0 l/m 0 min 2 min 123 W/m 12,9 km/h (3 Bft) 100,00 %
02.05.2020 09:56 10,2 C 8,9 C 10,0 C 90 % 1007,4 hPa 0,2 l/m 0 min 2 min 99 W/m 19,3 km/h (3 Bft) 95,65 %
02.05.2020 09:58 10,1 C 8,9 C 8,3 C 90 % 1007,4 hPa 0,0 l/m 0 min 2 min 116 W/m 12,9 km/h (3 Bft) 97,87 %
02.05.2020 10:00 10,1 C 8,9 C 8,3 C 90 % 1007,4 hPa 0,0 l/m 0 min 2 min 175 W/m 9,7 km/h (2 Bft) 100,00 %
02.05.2020 10:02 10,1 C 9,4 C 8,9 C 90 % 1007,5 hPa 0,0 l/m 0 min 2 min 240 W/m 16,1 km/h (3 Bft) 100,00 %
02.05.2020 10:04 10,1 C 9,4 C 8,9 C 90 % 1007,5 hPa 0,0 l/m 0 min 2 min 259 W/m 12,9 km/h (3 Bft) 100,00 %
02.05.2020 10:06 10,1 C 9,4 C 8,9 C 90 % 1007,6 hPa 0,0 l/m 0 min 2 min 265 W/m 22,5 km/h (4 Bft) 100,00 %
02.05.2020 10:08 10,0 C 10,0 C 8,9 C 90 % 1007,6 hPa 0,0 l/m 0 min 2 min 224 W/m 6,4 km/h (2 Bft) 97,87 %
02.05.2020 10:10 10,0 C 9,4 C 8,9 C 90 % 1007,6 hPa 0,0 l/m 0 min 2 min 149 W/m 9,7 km/h (2 Bft) 100,00 %
02.05.2020 10:12 10,0 C 9,4 C 8,9 C 90 % 1007,6 hPa 0,0 l/m 0 min 2 min 98 W/m 6,4 km/h (2 Bft) 100,00 %
02.05.2020 10:14 10,0 C 9,4 C 8,9 C 90 % 1007,7 hPa 0,0 l/m 0 min 2 min 65 W/m 19,3 km/h (3 Bft) 100,00 %
02.05.2020 10:16 9,9 C 8,3 C 7,8 C 89 % 1007,7 hPa 0,0 l/m 0 min 2 min 46 W/m 12,9 km/h (3 Bft) 100,00 %
02.05.2020 10:18 9,8 C 8,3 C 7,8 C 89 % 1007,7 hPa 0,0 l/m 0 min 2 min 41 W/m 12,9 km/h (3 Bft) 100,00 %
02.05.2020 10:20 9,8 C 7,8 C 7,8 C 89 % 1007,8 hPa 0,0 l/m 0 min 2 min 54 W/m 16,1 km/h (3 Bft) 100,00 %
02.05.2020 10:22 9,8 C 7,8 C 7,8 C 89 % 1007,8 hPa 0,0 l/m 0 min 2 min 86 W/m 12,9 km/h (3 Bft) 100,00 %
02.05.2020 10:24 9,7 C 7,8 C 8,3 C 90 % 1007,9 hPa 0,0 l/m 0 min 2 min 123 W/m 12,9 km/h (3 Bft) 100,00 %
02.05.2020 10:26 9,7 C 7,8 C 8,3 C 90 % 1007,9 hPa 0,0 l/m 0 min 2 min 139 W/m 6,4 km/h (2 Bft) 100,00 %
02.05.2020 10:28 9,7 C 7,8 C 7,8 C 90 % 1007,9 hPa 0,0 l/m 0 min 2 min 160 W/m 12,9 km/h (3 Bft) 100,00 %
02.05.2020 10:30 9,6 C 8,3 C 8,3 C 90 % 1007,9 hPa 0,0 l/m 0 min 2 min 204 W/m 12,9 km/h (3 Bft) 97,87 %
02.05.2020 10:32 9,6 C 8,9 C 8,9 C 90 % 1007,9 hPa 0,2 l/m 2 min 2 min 321 W/m 9,7 km/h (2 Bft) 100,00 %
02.05.2020 10:34 9,7 C 10,0 C 9,4 C 91 % 1007,8 hPa 0,0 l/m 2 min 2 min 391 W/m 12,9 km/h (3 Bft) 100,00 %
02.05.2020 10:36 9,8 C 10,6 C 10,6 C 91 % 1007,8 hPa 0,0 l/m 2 min 2 min 470 W/m 6,4 km/h (2 Bft) 100,00 %
02.05.2020 10:38 9,9 C 10,6 C 10,6 C 92 % 1007,8 hPa 0,0 l/m 2 min 2 min 424 W/m 6,4 km/h (2 Bft) 95,65 %
02.05.2020 10:40 10,0 C 10,6 C 10,0 C 92 % 1007,8 hPa 0,0 l/m 2 min 2 min 388 W/m 6,4 km/h (2 Bft) 100,00 %
02.05.2020 10:42 10,1 C 10,6 C 10,0 C 92 % 1007,8 hPa 0,0 l/m 2 min 2 min 370 W/m 6,4 km/h (2 Bft) 100,00 %
02.05.2020 10:44 10,1 C 10,6 C 10,0 C 92 % 1007,8 hPa 0,0 l/m 0 min 2 min 298 W/m 9,7 km/h (2 Bft) 97,87 %
02.05.2020 10:46 10,2 C 10,0 C 10,0 C 92 % 1007,8 hPa 0,0 l/m 0 min 0 min 281 W/m 12,9 km/h (3 Bft) 97,87 %
02.05.2020 10:48 10,2 C 10,0 C 10,0 C 92 % 1007,7 hPa 0,0 l/m 0 min 2 min 274 W/m 16,1 km/h (3 Bft) 97,83 %
02.05.2020 10:50 10,2 C 11,7 C 11,1 C 92 % 1007,8 hPa 0,0 l/m 2 min 0 min 478 W/m 16,1 km/h (3 Bft) 100,00 %
02.05.2020 10:52 10,2 C 12,2 C 12,8 C 92 % 1007,8 hPa 0,0 l/m 2 min 0 min 597 W/m 9,7 km/h (2 Bft) 97,87 %
02.05.2020 10:54 10,3 C 13,3 C 13,3 C 91 % 1007,8 hPa 0,0 l/m 2 min 0 min 684 W/m 12,9 km/h (3 Bft) 95,74 %
02.05.2020 10:56 10,4 C 14,4 C 14,4 C 91 % 1007,8 hPa 0,0 l/m 2 min 0 min 725 W/m 12,9 km/h (3 Bft) 97,87 %
02.05.2020 10:58 10,6 C 13,3 C 12,2 C 91 % 1007,8 hPa 0,0 l/m 2 min 0 min 622 W/m 9,7 km/h (2 Bft) 97,87 %
02.05.2020 11:00 10,7 C 12,2 C 11,7 C 91 % 1007,8 hPa 0,0 l/m 0 min 0 min 233 W/m 9,7 km/h (2 Bft) 95,65 %
02.05.2020 11:02 10,8 C 12,2 C 11,7 C 90 % 1007,8 hPa 0,0 l/m 0 min 0 min 256 W/m 19,3 km/h (3 Bft) 97,87 %
02.05.2020 11:04 10,8 C 11,7 C 11,1 C 90 % 1007,9 hPa 0,0 l/m 0 min 0 min 188 W/m 6,4 km/h (2 Bft) 97,87 %
02.05.2020 11:06 10,9 C 11,7 C 11,1 C 90 % 1007,8 hPa 0,0 l/m 0 min 0 min 197 W/m 9,7 km/h (2 Bft) 97,87 %
02.05.2020 11:08 10,9 C 11,7 C 11,1 C 89 % 1007,8 hPa 0,0 l/m 0 min 0 min 211 W/m 12,9 km/h (3 Bft) 97,87 %
02.05.2020 11:10 10,9 C 11,7 C 11,1 C 89 % 1007,8 hPa 0,0 l/m 0 min 0 min 267 W/m 16,1 km/h (3 Bft) 95,74 %
02.05.2020 11:12 10,9 C 13,9 C 12,8 C 89 % 1007,8 hPa 0,0 l/m 0 min 0 min 306 W/m 6,4 km/h (2 Bft) 95,65 %
02.05.2020 11:14 11,1 C 15,6 C 14,4 C 89 % 1007,8 hPa 0,0 l/m 0 min 0 min 306 W/m 6,4 km/h (2 Bft) 97,87 %
02.05.2020 11:16 11,2 C 16,1 C 15,0 C 89 % 1007,8 hPa 0,0 l/m 0 min 0 min 306 W/m 19,3 km/h (3 Bft) 95,74 %
02.05.2020 11:18 11,4 C 16,1 C 14,4 C 89 % 1007,9 hPa 0,0 l/m 0 min 0 min 306 W/m 16,1 km/h (3 Bft) 97,87 %
02.05.2020 11:20 11,6 C 16,7 C 13,9 C 88 % 1007,8 hPa 0,0 l/m 2 min 0 min 924 W/m 19,3 km/h (3 Bft) 97,87 %
02.05.2020 11:22 11,8 C 17,2 C 14,4 C 87 % 1007,9 hPa 0,0 l/m 2 min 0 min 807 W/m 12,9 km/h (3 Bft) 97,87 %
02.05.2020 11:24 12,0 C 17,2 C 13,9 C 88 % 1007,9 hPa 0,0 l/m 2 min 0 min 785 W/m 25,7 km/h (4 Bft) 97,83 %
02.05.2020 11:26 12,1 C 17,2 C 13,9 C 86 % 1007,9 hPa 0,0 l/m 2 min 0 min 841 W/m 16,1 km/h (3 Bft) 97,87 %
02.05.2020 11:28 12,3 C 17,2 C 14,4 C 85 % 1007,9 hPa 0,0 l/m 2 min 0 min 880 W/m 6,4 km/h (2 Bft) 97,87 %
02.05.2020 11:30 12,6 C 17,2 C 14,4 C 85 % 1008,0 hPa 0,0 l/m 2 min 0 min 928 W/m 9,7 km/h (2 Bft) 97,87 %
02.05.2020 11:32 12,6 C 14,4 C 13,3 C 83 % 1007,9 hPa 0,0 l/m 2 min 0 min 787 W/m 19,3 km/h (3 Bft) 97,87 %
02.05.2020 11:34 12,6 C 14,4 C 13,3 C 81 % 1008,0 hPa 0,0 l/m 0 min 0 min 167 W/m 16,1 km/h (3 Bft) 97,87 %
02.05.2020 11:36 12,4 C 14,4 C 12,8 C 79 % 1008,0 hPa 0,0 l/m 0 min 0 min 196 W/m 12,9 km/h (3 Bft) 93,48 %
02.05.2020 11:38 12,4 C 16,1 C 12,8 C 79 % 1008,0 hPa 0,0 l/m 2 min 0 min 866 W/m 22,5 km/h (4 Bft) 95,74 %
02.05.2020 11:40 12,5 C 16,7 C 12,8 C 79 % 1008,0 hPa 0,0 l/m 2 min 0 min 878 W/m 25,7 km/h (4 Bft) 93,62 %
02.05.2020 11:42 12,6 C 16,7 C 12,8 C 78 % 1008,0 hPa 0,0 l/m 2 min 0 min 876 W/m 12,9 km/h (3 Bft) 95,74 %
02.05.2020 11:44 12,7 C 17,2 C 13,3 C 78 % 1008,0 hPa 0,0 l/m 2 min 0 min 870 W/m 19,3 km/h (3 Bft) 97,87 %
02.05.2020 11:46 12,8 C 17,2 C 12,8 C 77 % 1008,0 hPa 0,0 l/m 2 min 0 min 854 W/m 32,2 km/h (5 Bft) 97,87 %
02.05.2020 11:48 12,9 C 17,2 C 12,8 C 76 % 1008,1 hPa 0,0 l/m 2 min 0 min 843 W/m 25,7 km/h (4 Bft) 93,48 %
02.05.2020 11:50 13,0 C 16,7 C 13,3 C 76 % 1008,1 hPa 0,0 l/m 2 min 0 min 857 W/m 16,1 km/h (3 Bft) 93,62 %
02.05.2020 11:52 12,9 C 15,6 C 13,3 C 76 % 1008,2 hPa 0,0 l/m 2 min 0 min 745 W/m 16,1 km/h (3 Bft) 91,49 %
02.05.2020 11:54 12,9 C 16,1 C 13,3 C 75 % 1008,3 hPa 0,0 l/m 2 min 0 min 762 W/m 35,4 km/h (5 Bft) 93,62 %
02.05.2020 11:56 12,9 C 17,2 C 13,9 C 77 % 1008,2 hPa 0,0 l/m 2 min 0 min 1002 W/m 12,9 km/h (3 Bft) 91,49 %
02.05.2020 11:58 12,9 C 16,1 C 13,3 C 76 % 1008,3 hPa 0,0 l/m 2 min 0 min 997 W/m 22,5 km/h (4 Bft) 93,48 %
02.05.2020 12:00 12,8 C 16,7 C 13,3 C 76 % 1008,3 hPa 0,0 l/m 2 min 0 min 1022 W/m 25,7 km/h (4 Bft) 91,49 %
02.05.2020 12:02 12,9 C 16,7 C 13,3 C 78 % 1008,4 hPa 0,0 l/m 2 min 0 min 1065 W/m 12,9 km/h (3 Bft) 93,62 %
02.05.2020 12:04 12,9 C 16,1 C 13,9 C 78 % 1008,4 hPa 0,0 l/m 2 min 0 min 969 W/m 29,0 km/h (5 Bft) 93,88 %
02.05.2020 12:08 12,9 C 14,4 C 13,3 C 77 % 1008,4 hPa 0,0 l/m 4 min 0 min 648 W/m 19,3 km/h (3 Bft) 93,62 %
02.05.2020 12:10 12,8 C 13,3 C 12,8 C 75 % 1008,5 hPa 0,0 l/m 0 min 0 min 317 W/m 29,0 km/h (5 Bft) 93,62 %
02.05.2020 12:12 12,6 C 12,8 C 12,2 C 75 % 1008,5 hPa 0,0 l/m 0 min 0 min 347 W/m 16,1 km/h (3 Bft) 93,62 %
02.05.2020 12:14 12,4 C 12,8 C 12,2 C 76 % 1008,6 hPa 0,0 l/m 0 min 0 min 368 W/m 16,1 km/h (3 Bft) 93,62 %
02.05.2020 12:16 12,3 C 12,2 C 11,7 C 76 % 1008,6 hPa 0,0 l/m 0 min 0 min 240 W/m 9,7 km/h (2 Bft) 93,48 %
02.05.2020 12:18 12,1 C 11,7 C 11,1 C 77 % 1008,7 hPa 0,0 l/m 0 min 0 min 176 W/m 22,5 km/h (4 Bft) 93,62 %
02.05.2020 12:20 12,0 C 11,1 C 11,1 C 77 % 1008,8 hPa 0,0 l/m 0 min 0 min 185 W/m 19,3 km/h (3 Bft) 93,62 %
02.05.2020 12:22 11,8 C 10,6 C 11,1 C 77 % 1008,7 hPa 0,0 l/m 0 min 0 min 189 W/m 12,9 km/h (3 Bft) 93,62 %
02.05.2020 12:24 11,6 C 10,6 C 10,6 C 77 % 1008,9 hPa 0,0 l/m 0 min 0 min 193 W/m 9,7 km/h (2 Bft) 95,74 %
02.05.2020 12:26 11,5 C 10,6 C 10,6 C 77 % 1008,8 hPa 0,0 l/m 0 min 0 min 198 W/m 16,1 km/h (3 Bft) 95,65 %
02.05.2020 12:28 11,3 C 10,6 C 10,6 C 77 % 1008,8 hPa 0,0 l/m 0 min 0 min 237 W/m 22,5 km/h (4 Bft) 97,87 %
02.05.2020 12:30 11,2 C 11,1 C 11,1 C 77 % 1008,7 hPa 0,0 l/m 0 min 0 min 304 W/m 9,7 km/h (2 Bft) 97,87 %
02.05.2020 12:32 11,1 C 11,7 C 11,7 C 79 % 1008,7 hPa 0,0 l/m 0 min 0 min 331 W/m 9,7 km/h (2 Bft) 95,74 %
02.05.2020 12:34 11,1 C 12,2 C 11,7 C 79 % 1008,8 hPa 0,0 l/m 0 min 0 min 357 W/m 16,1 km/h (3 Bft) 97,87 %
02.05.2020 12:36 11,1 C 12,2 C 12,2 C 79 % 1008,9 hPa 0,0 l/m 0 min 0 min 346 W/m 12,9 km/h (3 Bft) 97,87 %
02.05.2020 12:38 11,2 C 13,3 C 12,8 C 80 % 1008,9 hPa 0,0 l/m 0 min 0 min 344 W/m 6,4 km/h (2 Bft) 97,83 %
02.05.2020 12:40 11,2 C 13,9 C 12,8 C 80 % 1008,9 hPa 0,0 l/m 0 min 0 min 345 W/m 25,7 km/h (4 Bft) 95,74 %
02.05.2020 12:42 11,2 C 12,8 C 12,2 C 79 % 1009,0 hPa 0,0 l/m 0 min 0 min 338 W/m 19,3 km/h (3 Bft) 95,74 %
02.05.2020 12:44 11,2 C 12,8 C 12,2 C 78 % 1008,9 hPa 0,0 l/m 0 min 0 min 378 W/m 12,9 km/h (3 Bft) 97,87 %
02.05.2020 12:46 11,3 C 13,3 C 12,2 C 78 % 1008,8 hPa 0,0 l/m 2 min 0 min 467 W/m 19,3 km/h (3 Bft) 95,74 %
02.05.2020 12:48 11,3 C 12,8 C 12,2 C 78 % 1009,1 hPa 0,0 l/m 0 min 0 min 354 W/m 12,9 km/h (3 Bft) 97,87 %
02.05.2020 12:50 11,3 C 12,8 C 12,2 C 78 % 1009,0 hPa 0,0 l/m 0 min 0 min 351 W/m 12,9 km/h (3 Bft) 100,00 %
02.05.2020 12:52 11,4 C 13,9 C 12,2 C 78 % 1008,9 hPa 0,0 l/m 2 min 0 min 399 W/m 12,9 km/h (3 Bft) 97,87 %
02.05.2020 12:54 11,5 C 16,1 C 13,3 C 78 % 1008,9 hPa 0,0 l/m 2 min 0 min 439 W/m 16,1 km/h (3 Bft) 100,00 %
02.05.2020 12:56 11,7 C 16,1 C 13,3 C 79 % 1008,9 hPa 0,0 l/m 2 min 0 min 425 W/m 9,7 km/h (2 Bft) 100,00 %
02.05.2020 12:58 11,8 C 17,8 C 13,9 C 79 % 1008,9 hPa 0,0 l/m 2 min 0 min 670 W/m 3,2 km/h (1 Bft) 97,87 %
02.05.2020 13:00 12,1 C 17,8 C 14,4 C 80 % 1008,9 hPa 0,0 l/m 2 min 0 min 1016 W/m 12,9 km/h (3 Bft) 100,00 %
02.05.2020 13:02 12,3 C 15,0 C 13,9 C 78 % 1008,9 hPa 0,0 l/m 2 min 0 min 782 W/m 12,9 km/h (3 Bft) 100,00 %
02.05.2020 13:04 12,4 C 14,4 C 13,3 C 78 % 1008,9 hPa 0,0 l/m 0 min 0 min 317 W/m 19,3 km/h (3 Bft) 100,00 %
02.05.2020 13:06 12,4 C 14,4 C 13,3 C 78 % 1008,9 hPa 0,0 l/m 0 min 0 min 371 W/m 12,9 km/h (3 Bft) 100,00 %
02.05.2020 13:08 12,5 C 15,6 C 13,3 C 77 % 1008,8 hPa 0,0 l/m 2 min 0 min 493 W/m 12,9 km/h (3 Bft) 100,00 %
02.05.2020 13:10 12,5 C 14,4 C 13,3 C 76 % 1008,9 hPa 0,0 l/m 0 min 0 min 394 W/m 6,4 km/h (2 Bft) 100,00 %
02.05.2020 13:12 12,6 C 16,1 C 13,9 C 77 % 1008,9 hPa 0,0 l/m 2 min 0 min 730 W/m 9,7 km/h (2 Bft) 100,00 %
02.05.2020 13:14 12,7 C 15,0 C 13,3 C 77 % 1009,0 hPa 0,0 l/m 2 min 0 min 407 W/m 16,1 km/h (3 Bft) 100,00 %
02.05.2020 13:16 12,8 C 15,6 C 13,9 C 77 % 1009,0 hPa 0,0 l/m 0 min 0 min 272 W/m 9,7 km/h (2 Bft) 100,00 %
02.05.2020 13:18 12,8 C 16,7 C 15,0 C 76 % 1009,0 hPa 0,0 l/m 2 min 0 min 485 W/m 16,1 km/h (3 Bft) 100,00 %
02.05.2020 13:20 12,9 C 18,3 C 16,1 C 75 % 1009,1 hPa 0,0 l/m 2 min 0 min 1066 W/m 16,1 km/h (3 Bft) 100,00 %
02.05.2020 13:22 13,1 C 18,3 C 17,2 C 75 % 1009,2 hPa 0,0 l/m 2 min 0 min 986 W/m 16,1 km/h (3 Bft) 100,00 %
02.05.2020 13:24 13,3 C 18,9 C 19,4 C 74 % 1009,2 hPa 0,0 l/m 2 min 0 min 945 W/m 16,1 km/h (3 Bft) 100,00 %
02.05.2020 13:26 13,4 C 18,9 C 20,0 C 73 % 1009,1 hPa 0,0 l/m 2 min 0 min 932 W/m 16,1 km/h (3 Bft) 100,00 %
02.05.2020 13:28 13,6 C 20,0 C 20,6 C 73 % 1009,1 hPa 0,0 l/m 2 min 0 min 914 W/m 16,1 km/h (3 Bft) 100,00 %
02.05.2020 13:30 13,7 C 20,0 C 21,1 C 73 % 1009,1 hPa 0,0 l/m 2 min 0 min 936 W/m 9,7 km/h (2 Bft) 100,00 %
02.05.2020 13:32 13,9 C 18,9 C 20,6 C 73 % 1009,2 hPa 0,0 l/m 2 min 0 min 981 W/m 12,9 km/h (3 Bft) 97,87 %
02.05.2020 13:34 13,9 C 18,3 C 18,9 C 70 % 1009,2 hPa 0,0 l/m 2 min 0 min 1009 W/m 25,7 km/h (4 Bft) 100,00 %
02.05.2020 13:36 13,9 C 16,7 C 17,8 C 71 % 1009,1 hPa 0,0 l/m 2 min 0 min 1009 W/m 22,5 km/h (4 Bft) 100,00 %
02.05.2020 13:38 13,9 C 18,3 C 20,0 C 71 % 1009,2 hPa 0,0 l/m 2 min 0 min 995 W/m 19,3 km/h (3 Bft) 100,00 %
02.05.2020 13:40 13,9 C 16,7 C 17,2 C 71 % 1009,2 hPa 0,0 l/m 2 min 0 min 569 W/m 22,5 km/h (4 Bft) 100,00 %
02.05.2020 13:42 13,9 C 16,1 C 16,1 C 71 % 1009,2 hPa 0,0 l/m 0 min 0 min 206 W/m 9,7 km/h (2 Bft) 100,00 %
02.05.2020 13:44 13,9 C 16,1 C 16,1 C 71 % 1009,2 hPa 0,0 l/m 0 min 0 min 268 W/m 16,1 km/h (3 Bft) 100,00 %
02.05.2020 13:46 13,8 C 17,2 C 17,8 C 71 % 1009,3 hPa 0,0 l/m 0 min 0 min 378 W/m 12,9 km/h (3 Bft) 100,00 %
02.05.2020 13:48 13,9 C 18,9 C 19,4 C 73 % 1009,2 hPa 0,0 l/m 2 min 0 min 1087 W/m 12,9 km/h (3 Bft) 100,00 %
02.05.2020 13:50 14,0 C 17,2 C 18,3 C 71 % 1009,3 hPa 0,0 l/m 2 min 0 min 815 W/m 16,1 km/h (3 Bft) 100,00 %
02.05.2020 13:52 14,1 C 16,1 C 16,7 C 70 % 1009,3 hPa 0,0 l/m 2 min 0 min 703 W/m 6,4 km/h (2 Bft) 100,00 %
02.05.2020 13:54 14,1 C 16,1 C 16,7 C 72 % 1009,3 hPa 0,0 l/m 0 min 0 min 304 W/m 6,4 km/h (2 Bft) 100,00 %
02.05.2020 13:56 14,1 C 18,3 C 19,4 C 71 % 1009,3 hPa 0,0 l/m 2 min 0 min 640 W/m 19,3 km/h (3 Bft) 100,00 %
02.05.2020 13:58 14,2 C 19,4 C 20,6 C 71 % 1009,3 hPa 0,0 l/m 2 min 0 min 1056 W/m 19,3 km/h (3 Bft) 100,00 %
02.05.2020 14:00 14,3 C 20,6 C 21,7 C 72 % 1009,3 hPa 0,0 l/m 2 min 0 min 812 W/m 9,7 km/h (2 Bft) 100,00 %
02.05.2020 14:02 14,4 C 18,9 C 20,6 C 71 % 1009,3 hPa 0,0 l/m 2 min 0 min 812 W/m 6,4 km/h (2 Bft) 97,87 %
02.05.2020 14:04 14,4 C 16,7 C 17,2 C 70 % 1009,3 hPa 0,0 l/m 0 min 0 min 270 W/m 16,1 km/h (3 Bft) 100,00 %
02.05.2020 14:06 14,4 C 17,2 C 18,3 C 69 % 1009,3 hPa 0,0 l/m 0 min 0 min 272 W/m 9,7 km/h (2 Bft) 95,74 %
02.05.2020 14:08 14,5 C 19,4 C 20,0 C 69 % 1009,4 hPa 0,0 l/m 0 min 0 min 292 W/m 19,3 km/h (3 Bft) 97,87 %
02.05.2020 14:10 14,6 C 21,1 C 21,7 C 70 % 1009,3 hPa 0,0 l/m 2 min 0 min 1114 W/m 9,7 km/h (2 Bft) 97,87 %
02.05.2020 14:12 14,8 C 19,4 C 19,4 C 69 % 1009,4 hPa 0,0 l/m 2 min 0 min 1104 W/m 16,1 km/h (3 Bft) 97,83 %
02.05.2020 14:14 14,8 C 18,3 C 17,8 C 68 % 1009,3 hPa 0,0 l/m 2 min 0 min 1076 W/m 12,9 km/h (3 Bft) 97,87 %
02.05.2020 14:16 14,9 C 17,8 C 17,2 C 69 % 1009,3 hPa 0,0 l/m 0 min 0 min 355 W/m 6,4 km/h (2 Bft) 93,62 %
02.05.2020 14:18 14,9 C 18,3 C 17,8 C 68 % 1009,4 hPa 0,0 l/m 2 min 0 min 488 W/m 12,9 km/h (3 Bft) 93,62 %
02.05.2020 14:20 15,0 C 19,4 C 19,4 C 69 % 1009,4 hPa 0,0 l/m 2 min 0 min 1030 W/m 6,4 km/h (2 Bft) 95,74 %
02.05.2020 14:22 15,1 C 20,6 C 20,6 C 70 % 1009,4 hPa 0,0 l/m 2 min 0 min 899 W/m 9,7 km/h (2 Bft) 93,48 %
02.05.2020 14:24 15,2 C 19,4 C 19,4 C 69 % 1009,4 hPa 0,0 l/m 2 min 0 min 1019 W/m 9,7 km/h (2 Bft) 95,74 %
02.05.2020 14:26 15,3 C 18,9 C 17,8 C 69 % 1009,5 hPa 0,0 l/m 2 min 0 min 718 W/m 12,9 km/h (3 Bft) 95,74 %
02.05.2020 14:28 15,3 C 18,9 C 17,8 C 69 % 1009,6 hPa 0,0 l/m 2 min 0 min 808 W/m 22,5 km/h (4 Bft) 95,74 %
02.05.2020 14:30 15,4 C 18,9 C 17,2 C 67 % 1009,5 hPa 0,0 l/m 2 min 0 min 1106 W/m 9,7 km/h (2 Bft) 95,74 %
02.05.2020 14:32 15,4 C 19,4 C 17,2 C 67 % 1009,5 hPa 0,0 l/m 2 min 0 min 796 W/m 12,9 km/h (3 Bft) 95,74 %
02.05.2020 14:34 15,5 C 18,9 C 17,2 C 66 % 1009,5 hPa 0,0 l/m 2 min 0 min 989 W/m 22,5 km/h (4 Bft) 95,65 %
02.05.2020 14:36 15,6 C 18,3 C 17,2 C 67 % 1009,6 hPa 0,0 l/m 2 min 0 min 466 W/m 12,9 km/h (3 Bft) 93,62 %
02.05.2020 14:38 15,6 C 16,7 C 16,7 C 66 % 1009,7 hPa 0,0 l/m 0 min 0 min 313 W/m 12,9 km/h (3 Bft) 95,74 %
02.05.2020 14:40 15,5 C 15,6 C 16,1 C 66 % 1009,8 hPa 0,0 l/m 0 min 0 min 195 W/m 41,8 km/h (6 Bft) 95,74 %
02.05.2020 14:42 15,3 C 13,9 C 13,9 C 67 % 1010,0 hPa 0,0 l/m 0 min 0 min 88 W/m 32,2 km/h (5 Bft) 97,87 %
02.05.2020 14:44 14,8 C 11,7 C 11,7 C 69 % 1010,1 hPa 0,0 l/m 0 min 2 min 66 W/m 32,2 km/h (5 Bft) 97,87 %
02.05.2020 14:46 14,3 C 10,0 C 10,6 C 71 % 1010,1 hPa 0,0 l/m 0 min 2 min 64 W/m 22,5 km/h (4 Bft) 95,65 %
02.05.2020 14:48 13,7 C 8,9 C 9,4 C 75 % 1010,3 hPa 0,0 l/m 0 min 2 min 50 W/m 25,7 km/h (4 Bft) 97,87 %
02.05.2020 14:50 13,1 C 8,3 C 8,9 C 76 % 1010,4 hPa 0,2 l/m 0 min 2 min 39 W/m 25,7 km/h (4 Bft) 95,74 %
02.05.2020 14:52 12,6 C 8,3 C 8,9 C 78 % 1010,4 hPa 0,0 l/m 0 min 2 min 38 W/m 16,1 km/h (3 Bft) 97,87 %
02.05.2020 14:54 12,2 C 7,8 C 8,9 C 80 % 1010,6 hPa 0,2 l/m 0 min 2 min 44 W/m 16,1 km/h (3 Bft) 95,74 %
02.05.2020 14:56 11,8 C 7,8 C 8,3 C 81 % 1010,5 hPa 0,2 l/m 0 min 2 min 65 W/m 16,1 km/h (3 Bft) 97,87 %
02.05.2020 14:58 11,6 C 7,8 C 8,3 C 82 % 1010,4 hPa 0,2 l/m 0 min 2 min 116 W/m 6,4 km/h (2 Bft) 97,83 %
02.05.2020 15:00 11,4 C 8,3 C 8,9 C 84 % 1010,4 hPa 0,0 l/m 0 min 2 min 169 W/m 3,2 km/h (1 Bft) 97,87 %
02.05.2020 15:02 11,3 C 9,4 C 9,4 C 85 % 1010,4 hPa 0,0 l/m 0 min 2 min 234 W/m 3,2 km/h (1 Bft) 97,87 %
02.05.2020 15:04 11,3 C 12,2 C 10,0 C 85 % 1010,3 hPa 0,0 l/m 2 min 0 min 446 W/m 6,4 km/h (2 Bft) 100,00 %
02.05.2020 15:06 11,3 C 12,8 C 10,6 C 87 % 1010,3 hPa 0,0 l/m 2 min 0 min 965 W/m 0,0 km/h (0 Bft) 100,00 %
02.05.2020 15:08 11,3 C 12,2 C 10,6 C 88 % 1010,4 hPa 0,0 l/m 2 min 0 min 645 W/m 3,2 km/h (1 Bft) 100,00 %
02.05.2020 15:10 11,4 C 12,8 C 10,6 C 88 % 1010,3 hPa 0,0 l/m 2 min 0 min 645 W/m 12,9 km/h (3 Bft) 100,00 %
02.05.2020 15:12 11,4 C 14,4 C 11,1 C 89 % 1010,3 hPa 0,0 l/m 2 min 0 min 657 W/m 3,2 km/h (1 Bft) 100,00 %
02.05.2020 15:14 11,6 C 15,6 C 11,1 C 89 % 1010,3 hPa 0,0 l/m 2 min 0 min 796 W/m 3,2 km/h (1 Bft) 100,00 %
02.05.2020 15:16 11,6 C 15,6 C 11,1 C 90 % 1010,4 hPa 0,0 l/m 2 min 0 min 882 W/m 3,2 km/h (1 Bft) 100,00 %
02.05.2020 15:18 11,7 C 15,0 C 11,7 C 90 % 1010,3 hPa 0,0 l/m 2 min 0 min 892 W/m 3,2 km/h (1 Bft) 100,00 %
02.05.2020 15:20 11,8 C 15,6 C 11,7 C 90 % 1010,3 hPa 0,0 l/m 2 min 0 min 877 W/m 3,2 km/h (1 Bft) 97,87 %
02.05.2020 15:22 12,1 C 16,1 C 12,2 C 90 % 1010,3 hPa 0,0 l/m 2 min 0 min 915 W/m 6,4 km/h (2 Bft) 100,00 %
02.05.2020 15:24 12,2 C 16,7 C 12,2 C 90 % 1010,3 hPa 0,0 l/m 2 min 0 min 882 W/m 3,2 km/h (1 Bft) 100,00 %
02.05.2020 15:26 12,4 C 16,1 C 12,2 C 90 % 1010,3 hPa 0,0 l/m 2 min 0 min 800 W/m 3,2 km/h (1 Bft) 100,00 %
02.05.2020 15:28 12,6 C 16,1 C 12,2 C 90 % 1010,3 hPa 0,0 l/m 2 min 0 min 749 W/m 6,4 km/h (2 Bft) 100,00 %
02.05.2020 15:30 12,7 C 17,2 C 12,2 C 89 % 1010,3 hPa 0,0 l/m 2 min 0 min 823 W/m 3,2 km/h (1 Bft) 100,00 %
02.05.2020 15:32 12,9 C 17,2 C 11,7 C 89 % 1010,3 hPa 0,0 l/m 2 min 0 min 824 W/m 9,7 km/h (2 Bft) 100,00 %
02.05.2020 15:34 13,1 C 16,7 C 11,7 C 87 % 1010,4 hPa 0,0 l/m 2 min 0 min 819 W/m 12,9 km/h (3 Bft) 100,00 %
02.05.2020 15:36 13,1 C 16,1 C 11,7 C 85 % 1010,4 hPa 0,0 l/m 2 min 0 min 814 W/m 9,7 km/h (2 Bft) 100,00 %
02.05.2020 15:38 13,3 C 16,7 C 11,7 C 84 % 1010,4 hPa 0,0 l/m 2 min 0 min 824 W/m 3,2 km/h (1 Bft) 100,00 %
02.05.2020 15:40 13,4 C 17,2 C 12,2 C 84 % 1010,4 hPa 0,0 l/m 2 min 0 min 920 W/m 6,4 km/h (2 Bft) 100,00 %
02.05.2020 15:42 13,5 C 16,7 C 12,2 C 83 % 1010,5 hPa 0,0 l/m 2 min 0 min 928 W/m 12,9 km/h (3 Bft) 100,00 %
02.05.2020 15:44 13,7 C 16,7 C 12,8 C 83 % 1010,4 hPa 0,0 l/m 2 min 0 min 928 W/m 6,4 km/h (2 Bft) 100,00 %
02.05.2020 15:46 13,8 C 16,7 C 12,8 C 82 % 1010,5 hPa 0,0 l/m 2 min 0 min 928 W/m 6,4 km/h (2 Bft) 100,00 %
02.05.2020 15:48 13,9 C 16,7 C 12,2 C 81 % 1010,4 hPa 0,0 l/m 2 min 0 min 928 W/m 6,4 km/h (2 Bft) 100,00 %
02.05.2020 15:50 13,9 C 15,6 C 12,2 C 79 % 1010,4 hPa 0,0 l/m 2 min 0 min 493 W/m 3,2 km/h (1 Bft) 100,00 %
02.05.2020 15:52 13,9 C 13,9 C 12,2 C 79 % 1010,4 hPa 0,0 l/m 0 min 0 min 135 W/m 16,1 km/h (3 Bft) 100,00 %
02.05.2020 15:54 13,8 C 13,3 C 11,7 C 79 % 1010,4 hPa 0,0 l/m 0 min 0 min 67 W/m 12,9 km/h (3 Bft) 100,00 %
02.05.2020 15:56 13,7 C 12,2 C 11,1 C 78 % 1010,5 hPa 0,0 l/m 0 min 2 min 40 W/m 19,3 km/h (3 Bft) 100,00 %
02.05.2020 15:58 13,6 C 11,1 C 10,6 C 80 % 1010,7 hPa 0,0 l/m 0 min 2 min 49 W/m 19,3 km/h (3 Bft) 97,87 %
02.05.2020 16:00 13,2 C 9,4 C 9,4 C 80 % 1010,8 hPa 0,2 l/m 0 min 2 min 66 W/m 19,3 km/h (3 Bft) 100,00 %
02.05.2020 16:02 12,9 C 9,4 C 9,4 C 81 % 1010,7 hPa 0,0 l/m 0 min 2 min 78 W/m 12,9 km/h (3 Bft) 100,00 %
02.05.2020 16:04 12,6 C 9,4 C 9,4 C 83 % 1010,7 hPa 0,0 l/m 0 min 2 min 87 W/m 16,1 km/h (3 Bft) 100,00 %
02.05.2020 16:06 12,3 C 9,4 C 8,9 C 83 % 1010,7 hPa 0,0 l/m 0 min 2 min 103 W/m 3,2 km/h (1 Bft) 100,00 %
02.05.2020 16:08 12,2 C 9,4 C 9,4 C 84 % 1010,7 hPa 0,0 l/m 0 min 2 min 123 W/m 3,2 km/h (1 Bft) 100,00 %
02.05.2020 16:10 12,0 C 9,4 C 9,4 C 85 % 1010,7 hPa 0,0 l/m 0 min 2 min 132 W/m 3,2 km/h (1 Bft) 100,00 %
02.05.2020 16:12 11,9 C 9,4 C 9,4 C 85 % 1010,6 hPa 0,2 l/m 0 min 2 min 139 W/m 3,2 km/h (1 Bft) 100,00 %
02.05.2020 16:14 11,8 C 9,4 C 9,4 C 86 % 1010,6 hPa 0,0 l/m 0 min 2 min 163 W/m 3,2 km/h (1 Bft) 100,00 %
02.05.2020 16:16 11,7 C 9,4 C 9,4 C 86 % 1010,6 hPa 0,0 l/m 0 min 2 min 244 W/m 3,2 km/h (1 Bft) 100,00 %
02.05.2020 16:18 11,6 C 10,6 C 9,4 C 86 % 1010,6 hPa 0,0 l/m 0 min 0 min 287 W/m 9,7 km/h (2 Bft) 100,00 %
02.05.2020 16:20 11,6 C 10,6 C 10,0 C 87 % 1010,6 hPa 0,0 l/m 0 min 0 min 292 W/m 6,4 km/h (2 Bft) 95,74 %
02.05.2020 16:22 11,6 C 11,1 C 10,0 C 87 % 1010,6 hPa 0,0 l/m 0 min 0 min 315 W/m 0,0 km/h (0 Bft) 97,87 %
02.05.2020 16:24 11,6 C 13,3 C 11,1 C 88 % 1010,7 hPa 0,0 l/m 2 min 0 min 425 W/m 3,2 km/h (1 Bft) 97,87 %
02.05.2020 16:26 11,6 C 14,4 C 11,7 C 88 % 1010,6 hPa 0,0 l/m 2 min 0 min 868 W/m 9,7 km/h (2 Bft) 95,65 %
02.05.2020 16:28 11,7 C 13,9 C 11,7 C 89 % 1010,7 hPa 0,0 l/m 2 min 0 min 865 W/m 12,9 km/h (3 Bft) 97,87 %
02.05.2020 16:30 11,8 C 12,8 C 11,1 C 90 % 1010,6 hPa 0,0 l/m 2 min 0 min 560 W/m 3,2 km/h (1 Bft) 93,62 %
02.05.2020 16:32 11,8 C 12,8 C 11,1 C 90 % 1010,6 hPa 0,0 l/m 2 min 0 min 315 W/m 3,2 km/h (1 Bft) 95,74 %
02.05.2020 16:34 11,9 C 12,8 C 11,1 C 90 % 1010,6 hPa 0,0 l/m 2 min 0 min 320 W/m 6,4 km/h (2 Bft) 97,87 %
02.05.2020 16:36 11,9 C 12,8 C 11,1 C 90 % 1010,6 hPa 0,0 l/m 2 min 0 min 312 W/m 9,7 km/h (2 Bft) 95,74 %
02.05.2020 16:38 12,0 C 12,8 C 11,1 C 90 % 1010,6 hPa 0,0 l/m 0 min 0 min 295 W/m 9,7 km/h (2 Bft) 95,65 %
02.05.2020 16:40 12,1 C 12,8 C 11,1 C 89 % 1010,6 hPa 0,0 l/m 2 min 0 min 327 W/m 9,7 km/h (2 Bft) 95,74 %
02.05.2020 16:42 12,1 C 13,3 C 11,1 C 89 % 1010,6 hPa 0,0 l/m 2 min 0 min 374 W/m 9,7 km/h (2 Bft) 95,74 %
02.05.2020 16:44 12,1 C 14,4 C 11,1 C 89 % 1010,6 hPa 0,0 l/m 2 min 0 min 385 W/m 6,4 km/h (2 Bft) 97,87 %
02.05.2020 16:46 12,1 C 15,6 C 11,7 C 89 % 1010,7 hPa 0,0 l/m 2 min 0 min 387 W/m 6,4 km/h (2 Bft) 97,87 %
02.05.2020 16:48 12,2 C 15,0 C 11,1 C 89 % 1010,8 hPa 0,0 l/m 2 min 0 min 360 W/m 9,7 km/h (2 Bft) 95,65 %
02.05.2020 16:50 12,3 C 14,4 C 11,1 C 88 % 1010,8 hPa 0,0 l/m 2 min 0 min 357 W/m 6,4 km/h (2 Bft) 95,74 %
02.05.2020 16:52 12,3 C 14,4 C 11,1 C 88 % 1010,8 hPa 0,0 l/m 2 min 0 min 335 W/m 12,9 km/h (3 Bft) 95,74 %
02.05.2020 16:54 12,3 C 13,9 C 11,1 C 87 % 1010,8 hPa 0,0 l/m 2 min 0 min 321 W/m 9,7 km/h (2 Bft) 93,62 %
02.05.2020 16:56 12,3 C 13,3 C 11,1 C 86 % 1010,8 hPa 0,0 l/m 2 min 0 min 325 W/m 6,4 km/h (2 Bft) 95,74 %
02.05.2020 16:58 12,3 C 13,3 C 11,1 C 86 % 1010,8 hPa 0,0 l/m 2 min 0 min 306 W/m 9,7 km/h (2 Bft) 95,74 %
02.05.2020 17:00 12,3 C 13,3 C 11,1 C 86 % 1010,9 hPa 0,0 l/m 2 min 0 min 285 W/m 6,4 km/h (2 Bft) 93,48 %
02.05.2020 17:02 12,4 C 13,3 C 11,1 C 84 % 1011,0 hPa 0,0 l/m 0 min 0 min 267 W/m 12,9 km/h (3 Bft) 97,87 %
02.05.2020 17:04 12,4 C 13,3 C 11,7 C 84 % 1010,9 hPa 0,0 l/m 2 min 0 min 294 W/m 9,7 km/h (2 Bft) 97,87 %
02.05.2020 17:06 12,4 C 15,0 C 12,2 C 84 % 1011,0 hPa 0,0 l/m 2 min 0 min 311 W/m 6,4 km/h (2 Bft) 95,74 %
02.05.2020 17:08 12,5 C 16,1 C 12,8 C 84 % 1011,0 hPa 0,0 l/m 2 min 0 min 632 W/m 3,2 km/h (1 Bft) 95,74 %
02.05.2020 17:10 12,6 C 15,0 C 12,2 C 83 % 1011,0 hPa 0,0 l/m 2 min 0 min 503 W/m 6,4 km/h (2 Bft) 93,62 %
02.05.2020 17:12 12,7 C 14,4 C 12,2 C 83 % 1011,0 hPa 0,0 l/m 2 min 0 min 298 W/m 6,4 km/h (2 Bft) 97,83 %
02.05.2020 17:14 12,7 C 14,4 C 12,2 C 83 % 1011,0 hPa 0,0 l/m 2 min 0 min 338 W/m 9,7 km/h (2 Bft) 95,74 %
02.05.2020 17:16 12,8 C 14,4 C 12,2 C 83 % 1011,0 hPa 0,0 l/m 2 min 0 min 381 W/m 9,7 km/h (2 Bft) 95,74 %
02.05.2020 17:18 12,8 C 13,9 C 11,7 C 83 % 1011,0 hPa 0,0 l/m 0 min 0 min 203 W/m 9,7 km/h (2 Bft) 93,62 %
02.05.2020 17:20 12,8 C 13,3 C 11,7 C 82 % 1011,1 hPa 0,0 l/m 0 min 0 min 178 W/m 3,2 km/h (1 Bft) 37,50 %
02.05.2020 17:22 12,9 C 12,8 C 11,7 C 82 % 1011,1 hPa 0,0 l/m 0 min 0 min 177 W/m 6,4 km/h (2 Bft) 95,74 %
02.05.2020 17:24 12,8 C 12,8 C 11,1 C 81 % 1011,1 hPa 0,0 l/m 0 min 0 min 142 W/m 12,9 km/h (3 Bft) 95,65 %
02.05.2020 17:26 12,8 C 12,2 C 11,1 C 81 % 1011,1 hPa 0,0 l/m 0 min 0 min 122 W/m 3,2 km/h (1 Bft) 95,74 %
02.05.2020 17:28 12,8 C 12,2 C 11,1 C 81 % 1011,2 hPa 0,0 l/m 0 min 0 min 121 W/m 12,9 km/h (3 Bft) 95,74 %
02.05.2020 17:30 12,7 C 12,2 C 11,1 C 80 % 1011,2 hPa 0,0 l/m 0 min 0 min 122 W/m 6,4 km/h (2 Bft) 89,36 %
02.05.2020 17:32 12,7 C 11,7 C 10,6 C 80 % 1011,2 hPa 0,0 l/m 0 min 0 min 129 W/m 3,2 km/h (1 Bft) 95,74 %
02.05.2020 17:34 12,6 C 12,2 C 11,1 C 80 % 1011,2 hPa 0,0 l/m 0 min 0 min 134 W/m 3,2 km/h (1 Bft) 95,74 %
02.05.2020 17:36 12,6 C 11,7 C 10,6 C 80 % 1011,2 hPa 0,0 l/m 0 min 0 min 129 W/m 9,7 km/h (2 Bft) 93,48 %
02.05.2020 17:38 12,5 C 11,7 C 10,6 C 80 % 1011,3 hPa 0,0 l/m 0 min 0 min 130 W/m 9,7 km/h (2 Bft) 95,74 %
02.05.2020 17:40 12,4 C 11,7 C 10,6 C 80 % 1011,3 hPa 0,0 l/m 0 min 0 min 137 W/m 6,4 km/h (2 Bft) 95,74 %
02.05.2020 17:42 12,4 C 11,7 C 10,6 C 80 % 1011,3 hPa 0,0 l/m 0 min 0 min 146 W/m 9,7 km/h (2 Bft) 93,62 %
02.05.2020 17:44 12,3 C 11,7 C 10,6 C 81 % 1011,3 hPa 0,0 l/m 0 min 0 min 146 W/m 3,2 km/h (1 Bft) 95,74 %
02.05.2020 17:46 12,3 C 11,7 C 11,1 C 81 % 1011,3 hPa 0,0 l/m 0 min 0 min 133 W/m 6,4 km/h (2 Bft) 95,65 %
02.05.2020 17:48 12,3 C 11,7 C 11,1 C 81 % 1011,3 hPa 0,0 l/m 0 min 0 min 128 W/m 3,2 km/h (1 Bft) 95,74 %
02.05.2020 17:50 12,2 C 11,7 C 11,1 C 81 % 1011,3 hPa 0,0 l/m 0 min 0 min 130 W/m 3,2 km/h (1 Bft) 95,74 %
02.05.2020 17:52 12,2 C 11,7 C 11,1 C 82 % 1011,3 hPa 0,0 l/m 0 min 0 min 130 W/m 6,4 km/h (2 Bft) 97,87 %
02.05.2020 17:54 12,2 C 11,7 C 10,6 C 82 % 1011,3 hPa 0,0 l/m 0 min 0 min 138 W/m 3,2 km/h (1 Bft) 100,00 %
02.05.2020 17:56 12,2 C 11,7 C 11,1 C 82 % 1011,3 hPa 0,0 l/m 0 min 0 min 150 W/m 3,2 km/h (1 Bft) 97,87 %
02.05.2020 17:58 12,2 C 12,8 C 11,1 C 82 % 1011,4 hPa 0,0 l/m 0 min 0 min 195 W/m 6,4 km/h (2 Bft) 100,00 %
02.05.2020 18:00 12,2 C 14,4 C 11,7 C 82 % 1011,4 hPa 0,0 l/m 2 min 0 min 458 W/m 6,4 km/h (2 Bft) 100,00 %
02.05.2020 18:02 12,3 C 15,6 C 12,2 C 82 % 1011,3 hPa 0,0 l/m 2 min 0 min 577 W/m 3,2 km/h (1 Bft) 100,00 %
02.05.2020 18:04 12,3 C 15,6 C 12,2 C 83 % 1011,4 hPa 0,0 l/m 2 min 0 min 560 W/m 16,1 km/h (3 Bft) 100,00 %
02.05.2020 18:08 12,6 C 15,6 C 12,2 C 83 % 1011,4 hPa 0,0 l/m 4 min 0 min 582 W/m 9,7 km/h (2 Bft) 98,94 %
02.05.2020 18:10 12,7 C 15,0 C 12,2 C 83 % 1011,4 hPa 0,0 l/m 2 min 0 min 422 W/m 12,9 km/h (3 Bft) 100,00 %
02.05.2020 18:12 12,8 C 14,4 C 12,2 C 82 % 1011,4 hPa 0,0 l/m 2 min 0 min 301 W/m 3,2 km/h (1 Bft) 100,00 %
02.05.2020 18:14 12,9 C 13,9 C 12,2 C 82 % 1011,4 hPa 0,0 l/m 0 min 0 min 158 W/m 3,2 km/h (1 Bft) 100,00 %
02.05.2020 18:16 13,1 C 13,3 C 11,7 C 82 % 1011,4 hPa 0,0 l/m 0 min 0 min 130 W/m 3,2 km/h (1 Bft) 100,00 %
02.05.2020 18:18 13,1 C 13,3 C 11,7 C 82 % 1011,4 hPa 0,0 l/m 0 min 0 min 112 W/m 3,2 km/h (1 Bft) 100,00 %
02.05.2020 18:20 13,1 C 13,3 C 11,7 C 82 % 1011,4 hPa 0,0 l/m 0 min 0 min 100 W/m 6,4 km/h (2 Bft) 100,00 %
02.05.2020 18:22 13,1 C 12,8 C 11,7 C 82 % 1011,5 hPa 0,0 l/m 0 min 0 min 92 W/m 3,2 km/h (1 Bft) 100,00 %
02.05.2020 18:24 13,2 C 12,8 C 11,7 C 82 % 1011,5 hPa 0,0 l/m 0 min 0 min 88 W/m 9,7 km/h (2 Bft) 100,00 %
02.05.2020 18:26 13,1 C 12,8 C 11,7 C 82 % 1011,5 hPa 0,0 l/m 0 min 0 min 84 W/m 3,2 km/h (1 Bft) 97,87 %
02.05.2020 18:28 13,1 C 12,8 C 11,7 C 81 % 1011,5 hPa 0,0 l/m 0 min 0 min 84 W/m 6,4 km/h (2 Bft) 97,87 %
02.05.2020 18:30 13,1 C 12,8 C 11,7 C 81 % 1011,5 hPa 0,0 l/m 0 min 0 min 92 W/m 6,4 km/h (2 Bft) 100,00 %
02.05.2020 18:32 13,1 C 12,8 C 11,7 C 81 % 1011,5 hPa 0,0 l/m 0 min 0 min 123 W/m 3,2 km/h (1 Bft) 100,00 %
02.05.2020 18:34 13,1 C 13,9 C 11,7 C 81 % 1011,5 hPa 0,0 l/m 2 min 0 min 184 W/m 6,4 km/h (2 Bft) 100,00 %
02.05.2020 18:36 13,2 C 14,4 C 11,7 C 81 % 1011,5 hPa 0,0 l/m 2 min 0 min 392 W/m 6,4 km/h (2 Bft) 100,00 %
02.05.2020 18:38 13,2 C 14,4 C 11,7 C 81 % 1011,5 hPa 0,0 l/m 2 min 0 min 394 W/m 9,7 km/h (2 Bft) 100,00 %
02.05.2020 18:40 13,3 C 13,9 C 12,2 C 81 % 1011,5 hPa 0,0 l/m 2 min 0 min 278 W/m 9,7 km/h (2 Bft) 100,00 %
02.05.2020 18:42 13,3 C 13,9 C 12,2 C 81 % 1011,6 hPa 0,0 l/m 2 min 0 min 183 W/m 6,4 km/h (2 Bft) 100,00 %
02.05.2020 18:44 13,3 C 13,9 C 12,2 C 81 % 1011,6 hPa 0,0 l/m 2 min 0 min 278 W/m 3,2 km/h (1 Bft) 100,00 %
02.05.2020 18:46 13,4 C 13,9 C 12,2 C 81 % 1011,7 hPa 0,0 l/m 2 min 0 min 332 W/m 6,4 km/h (2 Bft) 97,87 %
02.05.2020 18:48 13,4 C 14,4 C 12,2 C 80 % 1011,7 hPa 0,0 l/m 2 min 0 min 345 W/m 3,2 km/h (1 Bft) 100,00 %
02.05.2020 18:50 13,4 C 14,4 C 12,2 C 80 % 1011,8 hPa 0,0 l/m 2 min 0 min 356 W/m 6,4 km/h (2 Bft) 100,00 %
02.05.2020 18:52 13,5 C 14,4 C 12,2 C 80 % 1011,8 hPa 0,0 l/m 2 min 0 min 346 W/m 12,9 km/h (3 Bft) 100,00 %
02.05.2020 18:54 13,6 C 13,9 C 12,2 C 80 % 1011,9 hPa 0,0 l/m 2 min 0 min 182 W/m 6,4 km/h (2 Bft) 100,00 %
02.05.2020 18:56 13,6 C 13,3 C 12,2 C 79 % 1011,8 hPa 0,0 l/m 0 min 0 min 122 W/m 6,4 km/h (2 Bft) 100,00 %
02.05.2020 18:58 13,6 C 13,3 C 12,2 C 79 % 1011,9 hPa 0,0 l/m 0 min 0 min 109 W/m 3,2 km/h (1 Bft) 100,00 %
02.05.2020 19:00 13,6 C 13,3 C 12,2 C 79 % 1011,9 hPa 0,0 l/m 0 min 0 min 92 W/m 9,7 km/h (2 Bft) 97,87 %
02.05.2020 19:02 13,6 C 13,3 C 12,2 C 79 % 1011,9 hPa 0,0 l/m 0 min 0 min 75 W/m 0,0 km/h (0 Bft) 97,87 %
02.05.2020 19:04 13,6 C 12,8 C 12,2 C 79 % 1011,9 hPa 0,0 l/m 0 min 0 min 84 W/m 9,7 km/h (2 Bft) 97,87 %
02.05.2020 19:06 13,6 C 12,8 C 12,2 C 79 % 1011,9 hPa 0,0 l/m 0 min 0 min 93 W/m 6,4 km/h (2 Bft) 97,87 %
02.05.2020 19:08 13,6 C 13,3 C 12,2 C 79 % 1011,9 hPa 0,0 l/m 0 min 0 min 104 W/m 6,4 km/h (2 Bft) 95,65 %
02.05.2020 19:10 13,6 C 13,3 C 12,2 C 78 % 1011,9 hPa 0,0 l/m 0 min 0 min 126 W/m 19,3 km/h (3 Bft) 95,74 %
02.05.2020 19:12 13,6 C 13,9 C 12,2 C 78 % 1012,0 hPa 0,0 l/m 2 min 0 min 157 W/m 16,1 km/h (3 Bft) 95,74 %
02.05.2020 19:14 13,6 C 13,9 C 12,8 C 77 % 1011,9 hPa 0,0 l/m 2 min 0 min 183 W/m 19,3 km/h (3 Bft) 97,87 %
02.05.2020 19:16 13,6 C 13,9 C 12,8 C 78 % 1011,9 hPa 0,0 l/m 2 min 0 min 168 W/m 6,4 km/h (2 Bft) 97,87 %
02.05.2020 19:18 13,7 C 13,9 C 12,8 C 77 % 1012,1 hPa 0,0 l/m 2 min 0 min 132 W/m 9,7 km/h (2 Bft) 97,87 %
02.05.2020 19:20 13,7 C 13,9 C 12,8 C 77 % 1012,0 hPa 0,0 l/m 0 min 0 min 103 W/m 16,1 km/h (3 Bft) 97,83 %
02.05.2020 19:22 13,7 C 13,3 C 12,8 C 75 % 1012,1 hPa 0,0 l/m 0 min 0 min 80 W/m 19,3 km/h (3 Bft) 97,87 %
02.05.2020 19:24 13,6 C 13,3 C 12,2 C 75 % 1012,1 hPa 0,0 l/m 0 min 0 min 69 W/m 16,1 km/h (3 Bft) 97,87 %
02.05.2020 19:26 13,6 C 12,8 C 12,2 C 75 % 1012,1 hPa 0,0 l/m 0 min 0 min 62 W/m 6,4 km/h (2 Bft) 97,87 %
02.05.2020 19:28 13,6 C 12,8 C 12,2 C 74 % 1012,1 hPa 0,0 l/m 0 min 0 min 57 W/m 16,1 km/h (3 Bft) 97,87 %
02.05.2020 19:30 13,6 C 12,8 C 11,7 C 74 % 1012,2 hPa 0,0 l/m 0 min 0 min 52 W/m 9,7 km/h (2 Bft) 95,74 %
02.05.2020 19:32 13,5 C 12,2 C 11,7 C 75 % 1012,1 hPa 0,0 l/m 0 min 0 min 45 W/m 0,0 km/h (0 Bft) 97,83 %
02.05.2020 19:34 13,4 C 12,2 C 11,7 C 75 % 1012,2 hPa 0,0 l/m 0 min 0 min 39 W/m 6,4 km/h (2 Bft) 97,87 %
02.05.2020 19:36 13,4 C 12,2 C 11,7 C 76 % 1012,2 hPa 0,0 l/m 0 min 0 min 42 W/m 3,2 km/h (1 Bft) 97,87 %
02.05.2020 19:38 13,3 C 12,2 C 11,7 C 75 % 1012,2 hPa 0,0 l/m 0 min 0 min 44 W/m 9,7 km/h (2 Bft) 97,87 %
02.05.2020 19:40 13,2 C 12,2 C 11,7 C 76 % 1012,2 hPa 0,0 l/m 0 min 0 min 46 W/m 9,7 km/h (2 Bft) 97,87 %
02.05.2020 19:42 13,2 C 12,2 C 11,7 C 75 % 1012,3 hPa 0,0 l/m 0 min 0 min 47 W/m 19,3 km/h (3 Bft) 97,87 %
02.05.2020 19:44 13,1 C 12,2 C 11,7 C 75 % 1012,3 hPa 0,0 l/m 0 min 0 min 46 W/m 6,4 km/h (2 Bft) 97,83 %
02.05.2020 19:46 13,1 C 11,7 C 11,1 C 75 % 1012,3 hPa 0,0 l/m 0 min 0 min 43 W/m 12,9 km/h (3 Bft) 95,74 %
02.05.2020 19:48 12,9 C 11,7 C 11,1 C 76 % 1012,3 hPa 0,0 l/m 0 min 0 min 39 W/m 16,1 km/h (3 Bft) 100,00 %
02.05.2020 19:50 12,9 C 11,7 C 11,1 C 76 % 1012,3 hPa 0,0 l/m 0 min 0 min 38 W/m 19,3 km/h (3 Bft) 97,87 %
02.05.2020 19:52 12,9 C 11,7 C 11,1 C 76 % 1012,4 hPa 0,0 l/m 0 min 0 min 40 W/m 9,7 km/h (2 Bft) 97,87 %
02.05.2020 19:54 12,8 C 11,7 C 11,1 C 76 % 1012,4 hPa 0,0 l/m 0 min 0 min 40 W/m 12,9 km/h (3 Bft) 97,83 %
02.05.2020 19:56 12,8 C 11,7 C 11,1 C 76 % 1012,4 hPa 0,0 l/m 0 min 0 min 39 W/m 6,4 km/h (2 Bft) 97,87 %
02.05.2020 19:58 12,7 C 11,7 C 11,1 C 77 % 1012,4 hPa 0,0 l/m 0 min 0 min 37 W/m 6,4 km/h (2 Bft) 97,87 %
02.05.2020 20:00 12,7 C 11,7 C 11,1 C 77 % 1012,4 hPa 0,0 l/m 0 min 0 min 37 W/m 6,4 km/h (2 Bft) 93,62 %
02.05.2020 20:02 12,7 C 11,7 C 11,1 C 77 % 1012,4 hPa 0,0 l/m 0 min 0 min 35 W/m 9,7 km/h (2 Bft) 95,74 %
02.05.2020 20:04 12,6 C 11,7 C 11,1 C 78 % 1012,5 hPa 0,0 l/m 0 min 0 min 33 W/m 3,2 km/h (1 Bft) 93,62 %
02.05.2020 20:06 12,6 C 11,7 C 11,1 C 78 % 1012,5 hPa 0,0 l/m 0 min 0 min 32 W/m 3,2 km/h (1 Bft) 91,49 %
02.05.2020 20:08 12,6 C 11,1 C 10,6 C 78 % 1012,5 hPa 0,0 l/m 0 min 0 min 32 W/m 3,2 km/h (1 Bft) 95,65 %
02.05.2020 20:09 12,5 C 11,1 C 10,6 C 78 % 1012,5 hPa 0,0 l/m 0 min 0 min 30 W/m 19,3 km/h (3 Bft) 95,74 %
02.05.2020 20:12 12,4 C 11,1 C 10,6 C 78 % 1012,6 hPa 0,0 l/m 0 min 0 min 29 W/m 9,7 km/h (2 Bft) 95,74 %
02.05.2020 20:14 12,4 C 11,1 C 10,6 C 78 % 1012,6 hPa 0,0 l/m 0 min 0 min 28 W/m 6,4 km/h (2 Bft) 95,74 %
02.05.2020 20:16 12,4 C 11,1 C 10,6 C 79 % 1012,6 hPa 0,0 l/m 0 min 0 min 26 W/m 3,2 km/h (1 Bft) 91,49 %
02.05.2020 20:18 12,3 C 11,1 C 10,6 C 78 % 1012,6 hPa 0,0 l/m 0 min 0 min 25 W/m 3,2 km/h (1 Bft) 95,65 %
02.05.2020 20:20 12,3 C 11,1 C 10,6 C 79 % 1012,7 hPa 0,0 l/m 0 min 0 min 25 W/m 0,0 km/h (0 Bft) 95,74 %
02.05.2020 20:22 12,3 C 11,1 C 10,6 C 78 % 1012,7 hPa 0,0 l/m 0 min 0 min 23 W/m 6,4 km/h (2 Bft) 93,48 %
02.05.2020 20:24 12,2 C 10,6 C 10,6 C 79 % 1012,7 hPa 0,0 l/m 0 min 0 min 22 W/m 3,2 km/h (1 Bft) 95,65 %
02.05.2020 20:26 12,2 C 10,6 C 10,0 C 79 % 1012,7 hPa 0,0 l/m 0 min 0 min 20 W/m 6,4 km/h (2 Bft) 95,74 %
02.05.2020 20:28 12,1 C 10,6 C 10,0 C 79 % 1012,8 hPa 0,0 l/m 0 min 0 min 19 W/m 6,4 km/h (2 Bft) 95,74 %
02.05.2020 20:30 12,1 C 10,6 C 10,0 C 79 % 1012,8 hPa 0,0 l/m 0 min 0 min 18 W/m 6,4 km/h (2 Bft) 95,74 %
02.05.2020 20:32 12,1 C 10,6 C 10,0 C 79 % 1012,9 hPa 0,0 l/m 0 min 0 min 17 W/m 3,2 km/h (1 Bft) 95,74 %
02.05.2020 20:34 12,0 C 10,6 C 10,0 C 79 % 1012,8 hPa 0,0 l/m 0 min 0 min 16 W/m 6,4 km/h (2 Bft) 95,74 %
02.05.2020 20:36 11,9 C 10,6 C 10,0 C 79 % 1012,9 hPa 0,0 l/m 0 min 0 min 14 W/m 6,4 km/h (2 Bft) 93,48 %
02.05.2020 20:38 11,9 C 10,6 C 10,0 C 79 % 1012,9 hPa 0,0 l/m 0 min 0 min 14 W/m 9,7 km/h (2 Bft) 54,35 %
02.05.2020 20:40 11,8 C 10,6 C 10,0 C 79 % 1012,9 hPa 0,0 l/m 0 min 0 min 12 W/m 9,7 km/h (2 Bft) 97,44 %
02.05.2020 20:42 11,8 C 10,6 C 10,0 C 79 % 1013,0 hPa 0,0 l/m 0 min 0 min 12 W/m 9,7 km/h (2 Bft) 97,87 %
02.05.2020 20:44 11,8 C 10,0 C 10,0 C 80 % 1013,0 hPa 0,0 l/m 0 min 0 min 11 W/m 3,2 km/h (1 Bft) 95,74 %
02.05.2020 20:46 11,7 C 10,0 C 9,4 C 80 % 1013,0 hPa 0,0 l/m 0 min 0 min 11 W/m 0,0 km/h (0 Bft) 95,65 %
02.05.2020 20:48 11,7 C 10,0 C 9,4 C 80 % 1013,1 hPa 0,0 l/m 0 min 0 min 9 W/m 6,4 km/h (2 Bft) 100,00 %
02.05.2020 20:54 11,6 C 10,0 C 9,4 C 80 % 1013,2 hPa 0,0 l/m 0 min 0 min 7 W/m 0,0 km/h (0 Bft) 100,00 %
02.05.2020 20:56 11,5 C 10,0 C 9,4 C 80 % 1013,2 hPa 0,0 l/m 0 min 0 min 5 W/m 0,0 km/h (0 Bft) 93,62 %
02.05.2020 20:58 11,5 C 9,4 C 9,4 C 80 % 1013,2 hPa 0,0 l/m 0 min 0 min 5 W/m 0,0 km/h (0 Bft) 100,00 %
02.05.2020 21:04 11,4 C 9,4 C 9,4 C 80 % 1013,3 hPa 0,0 l/m 0 min 0 min 2 W/m 0,0 km/h (0 Bft) 100,00 %
02.05.2020 21:09 11,3 C 9,4 C 9,4 C 80 % 1013,5 hPa 0,0 l/m 0 min 0 min 0 W/m 0,0 km/h (0 Bft) 100,00 %
02.05.2020 21:10 11,3 C 9,4 C 9,4 C 80 % 1013,5 hPa 0,0 l/m 0 min 0 min 0 W/m 0,0 km/h (0 Bft) 95,65 %
02.05.2020 21:12 11,2 C 9,4 C 8,9 C 80 % 1013,5 hPa 0,0 l/m 0 min 0 min 0 W/m 0,0 km/h (0 Bft) 97,87 %
02.05.2020 21:14 11,2 C 9,4 C 8,9 C 80 % 1013,5 hPa 0,0 l/m 0 min 0 min 0 W/m 0,0 km/h (0 Bft) 100,00 %
02.05.2020 21:16 11,1 C 8,9 C 8,3 C 80 % 1013,6 hPa 0,0 l/m 0 min 0 min 0 W/m 0,0 km/h (0 Bft) 100,00 %
02.05.2020 21:18 11,1 C 8,9 C 8,3 C 81 % 1013,6 hPa 0,0 l/m 0 min 0 min 0 W/m 0,0 km/h (0 Bft) 97,87 %
02.05.2020 21:20 11,1 C 8,9 C 8,3 C 81 % 1013,6 hPa 0,0 l/m 0 min 0 min 0 W/m 0,0 km/h (0 Bft) 97,87 %
02.05.2020 21:22 10,9 C 8,9 C 8,3 C 81 % 1013,7 hPa 0,0 l/m 0 min 0 min 0 W/m 0,0 km/h (0 Bft) 100,00 %
02.05.2020 21:24 10,9 C 8,9 C 8,3 C 81 % 1013,7 hPa 0,0 l/m 0 min 0 min 0 W/m 0,0 km/h (0 Bft) 100,00 %
02.05.2020 21:26 10,9 C 8,9 C 7,8 C 81 % 1013,8 hPa 0,0 l/m 0 min 0 min 0 W/m 0,0 km/h (0 Bft) 100,00 %
02.05.2020 21:28 10,8 C 8,9 C 7,8 C 81 % 1013,8 hPa 0,0 l/m 0 min 0 min 0 W/m 0,0 km/h (0 Bft) 97,87 %
02.05.2020 21:30 10,8 C 8,3 C 7,8 C 82 % 1013,9 hPa 0,0 l/m 0 min 0 min 0 W/m 0,0 km/h (0 Bft) 100,00 %
02.05.2020 21:32 10,7 C 8,3 C 7,8 C 82 % 1014,0 hPa 0,0 l/m 0 min 0 min 0 W/m 0,0 km/h (0 Bft) 100,00 %
02.05.2020 21:34 10,7 C 8,3 C 7,8 C 82 % 1014,0 hPa 0,0 l/m 0 min 0 min 0 W/m 0,0 km/h (0 Bft) 100,00 %
02.05.2020 21:36 10,7 C 8,3 C 7,8 C 82 % 1014,0 hPa 0,0 l/m 0 min 0 min 0 W/m 0,0 km/h (0 Bft) 100,00 %
02.05.2020 21:38 10,6 C 8,3 C 7,8 C 82 % 1014,1 hPa 0,0 l/m 0 min 0 min 0 W/m 0,0 km/h (0 Bft) 100,00 %
02.05.2020 21:40 10,6 C 8,3 C 7,2 C 82 % 1014,1 hPa 0,0 l/m 0 min 0 min 0 W/m 0,0 km/h (0 Bft) 100,00 %
02.05.2020 21:42 10,6 C 8,3 C 7,2 C 82 % 1014,2 hPa 0,0 l/m 0 min 0 min 0 W/m 0,0 km/h (0 Bft) 100,00 %
02.05.2020 21:44 10,5 C 8,3 C 7,2 C 82 % 1014,2 hPa 0,0 l/m 0 min 0 min 0 W/m 0,0 km/h (0 Bft) 100,00 %
02.05.2020 21:46 10,4 C 8,3 C 7,2 C 83 % 1014,3 hPa 0,0 l/m 0 min 0 min 0 W/m 0,0 km/h (0 Bft) 100,00 %
02.05.2020 21:48 10,4 C 7,8 C 7,2 C 83 % 1014,3 hPa 0,0 l/m 0 min 0 min 0 W/m 0,0 km/h (0 Bft) 100,00 %
02.05.2020 21:50 10,3 C 7,8 C 7,2 C 83 % 1014,3 hPa 0,0 l/m 0 min 0 min 0 W/m 0,0 km/h (0 Bft) 100,00 %
02.05.2020 21:52 10,3 C 7,8 C 7,2 C 83 % 1014,3 hPa 0,0 l/m 0 min 0 min 0 W/m 0,0 km/h (0 Bft) 97,87 %
02.05.2020 21:54 10,2 C 7,8 C 7,2 C 83 % 1014,4 hPa 0,0 l/m 0 min 0 min 0 W/m 0,0 km/h (0 Bft) 97,87 %
02.05.2020 21:56 10,2 C 7,8 C 7,2 C 83 % 1014,4 hPa 0,0 l/m 0 min 0 min 0 W/m 0,0 km/h (0 Bft) 97,83 %
02.05.2020 21:58 10,1 C 7,8 C 7,2 C 83 % 1014,5 hPa 0,0 l/m 0 min 0 min 0 W/m 0,0 km/h (0 Bft) 100,00 %
02.05.2020 22:00 10,1 C 7,8 C 7,2 C 83 % 1014,5 hPa 0,0 l/m 0 min 0 min 0 W/m 0,0 km/h (0 Bft) 100,00 %
02.05.2020 22:02 10,1 C 7,8 C 7,2 C 83 % 1014,5 hPa 0,0 l/m 0 min 0 min 0 W/m 6,4 km/h (2 Bft) 95,74 %
02.05.2020 22:04 10,0 C 7,8 C 7,2 C 84 % 1014,5 hPa 0,0 l/m 0 min 0 min 0 W/m 0,0 km/h (0 Bft) 97,87 %
02.05.2020 22:06 9,9 C 7,8 C 7,2 C 84 % 1014,6 hPa 0,0 l/m 0 min 0 min 0 W/m 0,0 km/h (0 Bft) 93,62 %
02.05.2020 22:08 9,9 C 7,8 C 7,2 C 84 % 1014,6 hPa 0,0 l/m 0 min 0 min 0 W/m 0,0 km/h (0 Bft) 95,65 %
02.05.2020 22:10 9,8 C 7,8 C 7,2 C 84 % 1014,6 hPa 0,0 l/m 0 min 0 min 0 W/m 0,0 km/h (0 Bft) 95,74 %
02.05.2020 22:12 9,8 C 7,8 C 7,2 C 84 % 1014,7 hPa 0,0 l/m 0 min 0 min 0 W/m 6,4 km/h (2 Bft) 95,74 %
02.05.2020 22:14 9,7 C 7,8 C 7,2 C 84 % 1014,7 hPa 0,0 l/m 0 min 0 min 0 W/m 0,0 km/h (0 Bft) 95,74 %
02.05.2020 22:16 9,7 C 7,8 C 7,2 C 85 % 1014,7 hPa 0,0 l/m 0 min 0 min 0 W/m 3,2 km/h (1 Bft) 95,74 %
02.05.2020 22:18 9,7 C 7,8 C 7,2 C 85 % 1014,8 hPa 0,0 l/m 0 min 0 min 0 W/m 0,0 km/h (0 Bft) 76,60 %
02.05.2020 22:20 9,6 C 7,8 C 7,2 C 85 % 1014,8 hPa 0,0 l/m 0 min 0 min 0 W/m 0,0 km/h (0 Bft) 71,43 %
02.05.2020 22:22 9,6 C 7,8 C 7,2 C 85 % 1014,8 hPa 0,0 l/m 0 min 0 min 0 W/m 0,0 km/h (0 Bft) 93,62 %
02.05.2020 22:24 9,5 C 7,8 C 7,2 C 85 % 1014,8 hPa 0,0 l/m 0 min 0 min 0 W/m 0,0 km/h (0 Bft) 93,62 %
02.05.2020 22:26 9,4 C 7,8 C 7,2 C 85 % 1014,8 hPa 0,0 l/m 0 min 0 min 0 W/m 0,0 km/h (0 Bft) 95,74 %
02.05.2020 22:28 9,4 C 7,8 C 7,2 C 86 % 1014,9 hPa 0,0 l/m 0 min 0 min 0 W/m 0,0 km/h (0 Bft) 95,74 %
02.05.2020 22:30 9,4 C 7,8 C 6,7 C 86 % 1014,9 hPa 0,0 l/m 0 min 0 min 0 W/m 0,0 km/h (0 Bft) 95,74 %
02.05.2020 22:32 9,3 C 7,8 C 6,7 C 86 % 1014,9 hPa 0,0 l/m 0 min 0 min 0 W/m 0,0 km/h (0 Bft) 93,48 %
02.05.2020 22:34 9,3 C 7,2 C 6,7 C 86 % 1014,9 hPa 0,0 l/m 0 min 0 min 0 W/m 3,2 km/h (1 Bft) 95,74 %
02.05.2020 22:36 9,3 C 7,2 C 6,7 C 86 % 1014,9 hPa 0,0 l/m 0 min 0 min 0 W/m 0,0 km/h (0 Bft) 95,74 %
02.05.2020 22:38 9,2 C 7,2 C 6,7 C 86 % 1014,9 hPa 0,0 l/m 0 min 0 min 0 W/m 0,0 km/h (0 Bft) 97,87 %
02.05.2020 22:40 9,2 C 7,2 C 6,7 C 86 % 1014,9 hPa 0,0 l/m 0 min 0 min 0 W/m 0,0 km/h (0 Bft) 95,74 %
02.05.2020 22:42 9,2 C 7,2 C 6,7 C 86 % 1015,0 hPa 0,0 l/m 0 min 0 min 0 W/m 0,0 km/h (0 Bft) 97,87 %
02.05.2020 22:44 9,1 C 7,2 C 6,7 C 86 % 1015,0 hPa 0,0 l/m 0 min 0 min 0 W/m 0,0 km/h (0 Bft) 97,87 %
02.05.2020 22:46 9,1 C 7,2 C 6,7 C 86 % 1015,1 hPa 0,0 l/m 0 min 0 min 0 W/m 0,0 km/h (0 Bft) 97,87 %
02.05.2020 22:48 9,1 C 7,2 C 6,1 C 86 % 1015,1 hPa 0,0 l/m 0 min 0 min 0 W/m 0,0 km/h (0 Bft) 95,74 %
02.05.2020 22:50 9,1 C 7,2 C 6,1 C 86 % 1015,1 hPa 0,0 l/m 0 min 0 min 0 W/m 0,0 km/h (0 Bft) 97,87 %
02.05.2020 22:52 9,0 C 7,2 C 6,1 C 86 % 1015,1 hPa 0,0 l/m 0 min 0 min 0 W/m 0,0 km/h (0 Bft) 95,74 %
02.05.2020 22:54 8,9 C 7,2 C 6,1 C 86 % 1015,2 hPa 0,0 l/m 0 min 0 min 0 W/m 0,0 km/h (0 Bft) 97,83 %
02.05.2020 22:56 8,9 C 7,2 C 6,1 C 86 % 1015,2 hPa 0,0 l/m 0 min 0 min 0 W/m 0,0 km/h (0 Bft) 97,87 %
02.05.2020 22:58 8,9 C 7,2 C 6,1 C 86 % 1015,1 hPa 0,0 l/m 0 min 0 min 0 W/m 0,0 km/h (0 Bft) 93,62 %
02.05.2020 23:00 8,8 C 7,2 C 6,1 C 86 % 1015,2 hPa 0,0 l/m 0 min 0 min 0 W/m 0,0 km/h (0 Bft) 97,87 %
02.05.2020 23:02 8,8 C 7,2 C 6,1 C 86 % 1015,2 hPa 0,0 l/m 0 min 0 min 0 W/m 0,0 km/h (0 Bft) 100,00 %
02.05.2020 23:04 8,8 C 7,2 C 6,1 C 87 % 1015,2 hPa 0,0 l/m 0 min 0 min 0 W/m 0,0 km/h (0 Bft) 100,00 %
02.05.2020 23:06 8,8 C 7,2 C 6,1 C 87 % 1015,2 hPa 0,0 l/m 0 min 0 min 0 W/m 0,0 km/h (0 Bft) 100,00 %
02.05.2020 23:08 8,7 C 6,7 C 6,1 C 87 % 1015,2 hPa 0,0 l/m 0 min 0 min 0 W/m 0,0 km/h (0 Bft) 95,74 %
02.05.2020 23:10 8,7 C 6,7 C 6,1 C 87 % 1015,2 hPa 0,0 l/m 0 min 0 min 0 W/m 0,0 km/h (0 Bft) 100,00 %
02.05.2020 23:12 8,7 C 6,7 C 6,1 C 87 % 1015,2 hPa 0,0 l/m 0 min 0 min 0 W/m 0,0 km/h (0 Bft) 100,00 %
02.05.2020 23:14 8,7 C 6,7 C 6,1 C 87 % 1015,2 hPa 0,0 l/m 0 min 0 min 0 W/m 0,0 km/h (0 Bft) 100,00 %
02.05.2020 23:16 8,6 C 6,7 C 6,1 C 87 % 1015,2 hPa 0,0 l/m 0 min 0 min 0 W/m 0,0 km/h (0 Bft) 97,87 %
02.05.2020 23:18 8,6 C 6,7 C 6,1 C 87 % 1015,2 hPa 0,0 l/m 0 min 0 min 0 W/m 0,0 km/h (0 Bft) 97,83 %
02.05.2020 23:20 8,6 C 6,7 C 6,1 C 87 % 1015,2 hPa 0,0 l/m 0 min 0 min 0 W/m 0,0 km/h (0 Bft) 100,00 %
02.05.2020 23:22 8,5 C 6,7 C 5,6 C 87 % 1015,2 hPa 0,0 l/m 0 min 0 min 0 W/m 0,0 km/h (0 Bft) 100,00 %
02.05.2020 23:24 8,5 C 6,7 C 5,6 C 87 % 1015,2 hPa 0,0 l/m 0 min 0 min 0 W/m 0,0 km/h (0 Bft) 100,00 %
02.05.2020 23:26 8,4 C 6,7 C 5,6 C 87 % 1015,2 hPa 0,0 l/m 0 min 0 min 0 W/m 0,0 km/h (0 Bft) 100,00 %
02.05.2020 23:28 8,4 C 6,7 C 5,6 C 87 % 1015,2 hPa 0,0 l/m 0 min 0 min 0 W/m 0,0 km/h (0 Bft) 100,00 %
02.05.2020 23:30 8,4 C 6,7 C 5,6 C 87 % 1015,3 hPa 0,0 l/m 0 min 0 min 0 W/m 0,0 km/h (0 Bft) 100,00 %
02.05.2020 23:32 8,3 C 6,7 C 5,6 C 87 % 1015,3 hPa 0,0 l/m 0 min 0 min 0 W/m 0,0 km/h (0 Bft) 100,00 %
02.05.2020 23:34 8,3 C 6,7 C 5,6 C 87 % 1015,3 hPa 0,0 l/m 0 min 0 min 0 W/m 0,0 km/h (0 Bft) 100,00 %
02.05.2020 23:36 8,3 C 6,7 C 5,6 C 87 % 1015,3 hPa 0,0 l/m 0 min 0 min 0 W/m 0,0 km/h (0 Bft) 97,87 %
02.05.2020 23:38 8,3 C 6,7 C 5,6 C 87 % 1015,3 hPa 0,0 l/m 0 min 0 min 0 W/m 0,0 km/h (0 Bft) 100,00 %
02.05.2020 23:40 8,2 C 6,7 C 5,6 C 88 % 1015,3 hPa 0,0 l/m 0 min 0 min 0 W/m 0,0 km/h (0 Bft) 100,00 %
02.05.2020 23:42 8,2 C 6,7 C 5,6 C 88 % 1015,3 hPa 0,0 l/m 0 min 0 min 0 W/m 0,0 km/h (0 Bft) 100,00 %
02.05.2020 23:44 8,2 C 6,7 C 5,6 C 88 % 1015,3 hPa 0,0 l/m 0 min 0 min 0 W/m 0,0 km/h (0 Bft) 97,87 %
02.05.2020 23:46 8,2 C 6,7 C 5,6 C 88 % 1015,3 hPa 0,0 l/m 0 min 0 min 0 W/m 0,0 km/h (0 Bft) 100,00 %
02.05.2020 23:48 8,1 C 6,7 C 5,6 C 88 % 1015,3 hPa 0,0 l/m 0 min 0 min 0 W/m 0,0 km/h (0 Bft) 100,00 %
02.05.2020 23:50 8,1 C 6,7 C 5,6 C 88 % 1015,3 hPa 0,0 l/m 0 min 0 min 0 W/m 0,0 km/h (0 Bft) 97,87 %
02.05.2020 23:52 8,1 C 6,1 C 5,6 C 88 % 1015,3 hPa 0,0 l/m 0 min 0 min 0 W/m 0,0 km/h (0 Bft) 97,87 %
02.05.2020 23:54 8,1 C 6,1 C 5,6 C 88 % 1015,3 hPa 0,0 l/m 0 min 0 min 0 W/m 0,0 km/h (0 Bft) 97,87 %
02.05.2020 23:56 8,1 C 6,7 C 5,6 C 88 % 1015,3 hPa 0,0 l/m 0 min 0 min 0 W/m 0,0 km/h (0 Bft) 100,00 %
02.05.2020 23:58 8,0 C 6,1 C 5,6 C 88 % 1015,3 hPa 0,0 l/m 0 min 0 min 0 W/m 0,0 km/h (0 Bft) 97,83 %
_ Min-Zeit 23:58 23:52 23:22 14:34 00:00 - - - - 02:28 17:20
Minimum _ 8,0 C 6,1 C 5,6 C 66 % 1003,6 hPa - - - - 0,0 km/h (0 Bft) 37,50 %
_ Max-Zeit 14:36 14:10 14:00 00:20 23:30 09:56 12:08 05:00 14:10 14:40 09:41
Maximum _ 15,6 C 21,1 C 21,7 C 97 % 1015,3 hPa 0,2 l/m 4 min 2 min 1114 W/m 41,8 km/h
N (6 Bft)
643,60 %
Durchschnitt _ 10,6 C 10,6 C 9,7 C 87 % 1008,7 hPa #1,6 l/m #5:06 h #1:38 h 302 W/m 9,1 km/h (2 Bft) 99,09 %
© 2020 W. Hausmann